GFSMA_500_spd_024.txt.gz
Wind_Speed
16 11 10 14 16 19 23 26 28 30 31 32 34 36 37 39 40 40 40 41 42 45 45 46 46 45 42 43 45 43 41 40 41 42 42 41 38 37 36 35 35 34 33
8 10 14 19 23 25 27 28 29 31 32 34 35 37 39 41 43 45 46 46 45 43 44 46 47 46 46 45 47 50 50 49 46 46 47 46 46 43 42 42 40 40 38
12 15 20 23 25 27 28 30 32 34 36 37 38 40 42 43 45 47 49 49 48 47 44 43 45 46 45 46 46 46 49 52 53 54 54 52 50 51 50 49 48 46 45
17 19 23 26 29 30 32 34 37 39 40 40 41 44 47 47 48 50 49 47 47 47 47 46 45 44 45 46 48 50 52 54 56 59 61 60 59 58 58 57 56 53 51
22 25 28 33 35 37 38 40 41 44 47 46 45 47 49 51 51 50 47 46 46 47 50 50 51 53 54 54 55 56 58 60 60 62 65 66 66 66 65 65 65 63 60
27 31 34 37 39 41 43 46 48 51 52 50 49 49 51 52 53 50 47 47 49 51 54 57 59 62 64 66 66 68 69 70 70 71 72 72 73 74 73 71 72 71 69
32 37 39 42 44 47 50 52 52 53 53 52 52 51 53 54 51 48 49 52 55 59 63 65 67 69 70 73 75 78 80 83 85 83 82 83 82 82 81 80 78 76 75
39 42 45 48 50 53 54 56 57 56 56 54 53 53 54 50 46 47 51 55 59 61 62 65 70 73 76 78 84 89 88 94 96 97 95 95 93 91 90 89 87 85 82
42 46 49 52 54 55 56 58 58 57 54 53 53 55 53 48 49 52 54 58 61 65 70 75 79 83 87 90 94 100 109 93 87 90 95 99 103 103 101 98 95 94 91
47 49 52 54 57 58 59 59 58 55 54 54 56 54 52 54 57 58 63 67 70 75 79 79 79 84 90 95 95 92 85 82 80 79 81 85 91 98 104 105 104 102 99
50 52 55 58 58 59 59 58 56 55 56 57 54 53 55 57 60 64 67 71 77 80 80 79 85 91 93 90 81 76 75 73 71 71 72 75 77 81 87 94 98 103 105
55 57 59 59 59 60 59 57 57 58 59 57 56 56 58 62 66 69 69 72 76 77 74 82 88 89 84 77 69 64 58 55 55 58 61 63 64 66 70 77 85 89 97
59 60 60 58 61 60 57 60 61 60 59 60 61 63 66 69 74 75 77 77 76 71 75 82 85 77 70 62 53 50 46 43 45 47 48 50 50 52 55 60 67 73 80
59 60 58 62 61 59 60 62 61 62 63 62 66 68 70 74 78 83 78 76 74 76 80 81 71 63 56 50 44 43 42 42 42 43 45 47 48 48 49 50 53 57 62
59 61 59 59 59 62 62 60 63 66 66 68 71 77 77 77 83 79 75 77 80 77 79 72 60 52 45 40 40 41 41 42 43 44 45 47 48 48 49 49 48 50 51
59 58 56 58 62 62 62 64 65 66 69 71 76 79 82 87 77 71 76 75 72 73 71 61 48 44 39 37 37 39 41 42 44 46 47 47 49 49 50 50 51 50 49
54 55 59 62 62 63 65 67 67 70 74 80 82 83 83 71 72 76 70 67 68 68 61 52 43 41 39 39 38 39 41 43 45 47 48 48 47 46 46 47 47 48 51
56 59 61 62 63 66 68 70 72 76 82 83 83 76 72 76 80 70 64 64 64 63 55 46 41 40 39 39 39 40 42 44 45 46 46 46 45 43 44 46 46 47 47
59 59 60 63 68 69 71 75 77 78 82 81 74 69 76 75 67 61 62 63 60 55 49 44 40 40 39 38 38 40 40 41 40 38 38 38 37 38 40 41 42 44 44
58 62 65 67 70 73 77 80 79 83 82 73 70 75 69 63 59 61 62 60 53 48 43 41 40 38 38 38 38 37 38 37 33 32 33 34 35 38 39 40 41 42 44
63 66 69 72 76 77 82 81 79 75 71 71 72 64 60 58 58 59 57 51 48 43 39 38 36 36 37 37 37 36 35 29 30 32 32 36 34 34 34 37 39 40 43
67 68 73 74 78 82 80 74 71 70 73 71 61 59 58 58 57 55 50 45 42 39 36 34 33 34 33 34 33 32 30 27 29 33 33 36 31 33 34 35 36 37 39
66 70 74 78 81 76 71 70 70 72 65 58 56 57 57 54 52 49 44 40 40 39 35 33 33 34 30 31 30 27 27 27 30 32 29 32 31 33 34 37 39 41 43
67 72 74 78 76 72 70 72 65 58 54 54 55 55 52 51 48 43 39 37 37 37 35 34 35 33 30 29 28 25 25 26 30 31 27 27 30 32 33 34 36 39 39
75 73 75 77 69 71 69 58 55 54 53 52 51 50 48 47 44 39 36 36 36 36 34 35 35 33 29 28 26 24 24 25 29 32 27 27 29 26 26 28 27 30 31
73 74 75 70 70 66 57 54 54 55 54 52 49 47 46 45 40 37 35 36 35 33 33 34 34 32 29 27 26 23 22 24 27 30 28 25 25 22 27 26 25 23 26

GFSMA_500_spd_027.txt.gz
Wind_Speed
14 11 7 9 13 17 22 25 27 29 31 33 35 38 39 40 41 41 41 41 42 43 43 44 44 44 46 47 47 48 46 43 42 42 41 39 40 42 41 41 40 38 38
9 9 10 14 18 22 26 29 32 34 36 37 40 42 43 44 44 44 44 46 46 45 44 43 43 42 42 44 44 44 46 48 48 48 47 46 46 46 47 47 46 44 42
8 12 16 21 24 27 32 35 37 39 40 41 43 45 46 47 46 46 47 48 48 48 46 44 43 42 42 42 43 46 47 47 48 51 54 52 50 52 53 52 52 51 50
13 18 22 26 29 32 36 39 40 42 43 45 46 47 49 49 47 47 46 46 48 47 44 43 43 43 44 45 46 46 47 50 51 52 55 55 58 58 57 58 59 59 57
19 24 27 30 33 36 39 41 43 45 47 48 49 49 49 49 47 46 46 48 46 42 42 43 46 47 49 50 52 53 55 56 57 58 60 61 61 61 63 64 64 64 65
24 28 31 34 38 41 42 44 47 49 49 50 50 50 50 48 47 48 49 47 43 44 45 47 49 52 54 55 57 60 62 63 64 65 67 68 71 74 73 71 71 70 70
28 31 35 39 42 45 47 49 51 51 52 51 51 51 50 49 49 52 50 46 47 49 51 54 56 58 60 64 68 71 73 75 77 78 78 77 79 81 83 85 84 79 79
33 37 41 45 48 49 51 51 51 52 53 52 51 50 50 51 53 52 50 50 51 53 55 58 60 63 65 67 73 75 77 83 83 81 83 86 89 89 89 93 94 91 88
40 44 46 48 49 51 53 54 53 53 55 53 52 53 54 54 55 52 51 52 53 58 61 65 68 69 68 71 72 75 80 81 83 88 93 95 99 101 96 94 103 101 97
45 47 48 50 51 53 53 54 53 56 54 53 55 57 58 58 58 58 58 60 63 65 69 72 74 76 77 78 74 76 79 84 89 94 100 97 92 91 89 87 91 102 106
49 51 53 54 55 53 55 55 56 56 55 57 59 58 58 61 62 60 61 65 68 73 76 78 80 83 79 73 76 80 81 83 87 84 83 79 77 77 77 77 76 80 99
51 53 54 54 56 56 55 56 57 57 60 62 62 62 63 65 65 66 68 69 71 72 75 78 74 75 73 78 77 79 82 82 82 73 64 59 55 55 57 59 64 67 73
51 51 51 55 56 57 59 58 59 62 64 64 64 66 67 68 70 71 74 79 73 71 68 70 73 77 74 78 80 82 81 77 67 55 50 48 46 44 44 46 50 55 60
50 48 51 59 58 58 58 60 63 65 65 66 69 73 75 75 79 80 79 73 68 63 63 73 78 76 77 80 81 80 73 62 52 48 46 44 43 41 40 41 43 46 49
50 50 55 57 58 59 61 63 65 66 69 73 76 79 79 81 82 80 78 72 69 68 72 74 72 72 77 78 75 69 60 51 48 47 46 46 45 44 43 43 44 44 45
52 53 55 56 58 60 62 64 67 70 74 76 77 79 83 83 82 78 69 70 74 76 76 69 68 71 73 68 64 60 52 49 47 46 45 45 46 48 49 49 48 48 47
53 53 55 57 59 62 64 68 71 75 76 80 82 84 85 81 72 66 69 77 76 71 70 69 70 66 63 60 55 52 48 45 44 44 44 45 46 48 51 51 51 50 49
53 55 57 58 61 65 69 73 76 78 79 84 86 85 76 70 70 72 77 74 69 71 71 67 62 58 56 53 49 45 44 42 42 43 43 44 44 43 42 43 44 46 48
53 54 56 59 64 69 73 76 77 81 85 86 84 78 73 72 76 73 67 66 68 66 64 61 55 53 50 48 44 42 41 40 40 40 39 38 37 35 36 37 38 39 42
52 56 59 64 69 70 74 79 81 82 83 84 79 74 75 72 66 64 64 63 61 60 57 53 50 48 46 44 43 40 39 38 37 38 37 35 33 34 36 38 38 38 38
56 60 61 68 75 81 82 83 83 83 85 77 73 73 66 59 57 59 60 57 57 56 52 48 45 44 42 42 42 41 39 35 36 36 30 34 34 37 38 36 36 36 35
61 66 69 74 76 78 85 85 84 84 77 75 70 61 57 57 58 58 57 55 55 51 47 43 42 41 40 40 39 39 36 35 32 35 29 34 35 38 35 34 33 34 35
62 69 67 71 75 80 83 83 82 73 74 62 60 57 55 57 58 57 55 54 51 47 44 42 40 40 37 38 36 34 34 33 32 31 26 33 36 35 32 32 31 32 33
66 70 69 70 72 78 80 80 73 67 59 58 57 55 57 58 57 55 53 51 47 44 42 41 40 39 38 37 35 32 30 29 30 31 26 30 34 33 29 29 30 32 35
65 69 69 70 74 77 76 68 64 60 58 57 55 57 58 59 56 53 51 48 44 41 40 39 37 37 37 36 33 28 28 26 26 30 27 29 31 27 28 28 29 29 32
65 68 69 72 73 74 67 61 59 59 58 56 56 58 59 59 55 50 48 44 41 38 37 34 35 36 36 33 30 27 24 25 24 25 27 30 31 28 23 30 28 31 31

GFSMA_500_spd_030.txt.gz
Wind_Speed
10 9 5 6 10 13 18 21 25 29 32 35 37 38 39 41 42 43 43 43 43 43 42 42 40 41 41 41 41 41 43 46 46 45 43 40 42 41 41 43 43 42 42
8 6 7 10 15 19 22 26 30 34 36 39 40 42 43 45 45 46 46 46 45 45 45 43 42 42 41 40 40 39 38 40 44 46 47 45 44 45 46 46 45 47 47
6 8 12 15 20 24 28 31 34 37 40 42 44 46 47 47 48 47 46 46 46 46 46 46 47 46 43 39 37 37 38 38 39 43 46 47 48 48 48 49 51 52 50
11 13 16 21 25 30 33 35 39 42 44 46 47 48 49 49 49 47 46 45 45 45 47 48 47 42 40 40 42 43 43 44 45 46 48 50 50 50 53 53 52 54 56
13 17 21 26 30 34 38 40 43 45 47 48 49 50 51 50 49 47 45 45 46 47 49 48 44 44 46 46 48 49 51 53 54 55 55 55 57 58 57 59 58 59 59
19 23 27 31 35 38 41 43 46 48 49 51 52 52 50 48 45 45 46 48 50 51 51 49 49 51 52 54 56 58 60 63 64 63 63 63 63 63 67 68 68 67 67
24 28 32 35 39 42 44 46 48 50 51 51 51 50 50 47 46 47 50 51 51 51 52 53 55 57 59 61 63 65 67 69 70 71 69 71 73 70 72 74 78 79 78
29 32 35 38 42 46 48 48 48 49 49 49 51 51 50 49 52 54 54 53 54 56 58 59 60 60 63 66 68 70 71 71 72 72 72 75 76 77 77 80 79 81 82
34 37 40 44 46 46 46 46 48 49 48 51 52 52 52 53 55 55 56 58 61 62 63 63 63 65 67 70 72 74 75 76 73 73 74 75 76 78 81 84 84 87 89
40 43 44 45 47 47 48 45 48 52 54 53 53 54 57 58 59 60 62 65 67 69 70 69 70 72 76 78 75 74 75 69 69 68 70 74 76 79 86 92 94 94 90
45 47 45 48 46 45 42 41 58 58 56 55 57 59 59 62 64 67 69 71 74 75 76 78 80 80 76 71 68 66 66 67 73 75 77 81 82 80 85 91 95 96 88
47 46 47 47 48 43 45 52 58 57 57 59 60 62 65 69 72 75 77 79 80 81 83 83 81 76 72 65 66 71 74 75 76 77 79 78 79 85 86 80 71 67 64
47 46 45 48 51 50 51 54 55 57 59 61 63 67 72 75 79 81 82 83 86 83 79 75 70 68 68 72 74 74 76 77 79 82 82 83 81 72 61 57 49 46 46
48 48 50 52 51 51 52 55 57 59 61 64 68 72 76 80 82 86 86 88 82 80 73 69 66 72 75 74 75 77 78 76 75 73 73 70 64 53 49 46 43 42 40
47 51 54 53 53 52 54 56 58 62 65 69 72 74 76 79 81 82 84 87 83 74 66 71 74 73 74 75 73 70 68 66 64 63 61 56 51 47 46 44 42 41 41
53 54 56 54 52 53 56 59 62 66 72 74 74 75 80 82 83 86 88 81 75 78 77 70 70 71 70 66 64 61 59 57 56 53 49 47 47 45 45 44 43 44 44
55 58 57 56 55 55 58 62 66 69 73 77 81 83 87 87 88 86 80 80 78 68 66 66 66 64 61 60 58 56 54 52 49 46 44 42 41 42 43 44 45 45 47
57 58 57 55 54 57 62 66 68 75 76 78 82 85 85 87 85 80 80 71 65 62 63 62 59 58 58 56 53 51 49 48 44 41 39 38 39 39 40 42 44 44 44
56 55 54 53 55 59 65 67 70 72 77 82 81 84 86 84 78 73 68 60 60 64 64 60 57 56 54 51 48 48 47 44 42 39 37 37 37 37 38 39 40 40 38
55 55 55 57 59 58 67 72 75 77 79 78 81 83 83 78 67 65 61 59 62 64 63 59 56 54 51 48 47 46 44 43 42 40 37 37 34 33 34 35 36 36 37
56 54 57 59 62 64 67 74 79 78 77 78 81 82 78 68 66 61 59 61 62 64 60 55 54 51 47 45 46 45 43 41 41 40 35 38 33 34 32 32 33 35 36
55 57 60 63 61 66 72 77 78 78 78 79 81 76 67 65 61 59 58 60 63 62 57 52 50 48 44 43 42 41 41 40 38 38 34 35 32 33 31 31 34 35 33
58 62 65 66 70 70 72 74 77 77 78 79 77 66 63 62 61 58 59 60 62 59 53 49 47 44 41 39 38 39 40 38 37 35 30 29 30 32 33 32 34 34 31
60 63 61 74 73 71 71 74 77 77 78 76 68 64 62 62 60 58 59 60 61 56 50 47 44 41 39 38 39 38 38 36 35 34 29 23 29 30 32 33 32 30 30
64 71 70 72 71 71 73 76 77 78 77 69 65 63 60 61 59 58 58 59 58 54 48 44 42 38 37 38 37 37 36 33 30 32 30 23 28 26 32 33 27 28 28
63 68 70 71 72 72 75 76 78 78 75 69 63 60 59 60 58 59 58 58 56 51 46 42 39 37 36 36 36 37 35 32 29 27 29 25 28 27 28 30 29 27 30

GFSMA_500_spd_033.txt.gz
Wind_Speed
12 14 15 10 8 10 12 16 20 23 27 29 32 35 37 39 42 43 44 44 44 45 44 42 40 41 41 42 43 43 44 45 46 45 41 37 35 35 38 43 44 45 46
15 14 11 9 11 14 17 21 24 28 31 34 37 39 41 42 44 46 46 46 45 44 43 43 43 43 42 43 44 45 45 43 43 44 44 41 40 40 38 38 43 47 48
10 12 13 11 13 18 21 26 29 32 36 39 42 43 45 46 47 47 46 45 44 44 44 45 45 45 46 46 46 45 43 42 43 43 44 46 47 46 45 43 44 44 47
9 10 11 14 18 22 26 30 33 37 39 42 44 46 47 48 47 46 44 44 44 45 46 47 47 48 48 46 45 46 47 48 48 48 49 50 51 52 52 51 51 52 51
10 13 15 19 24 27 31 35 38 41 43 45 47 48 48 47 45 44 45 45 44 46 47 47 48 48 49 51 52 54 55 56 56 57 57 57 59 59 59 59 60 60 59
12 15 20 23 28 32 36 38 42 45 47 48 49 48 47 45 45 46 46 46 47 48 49 49 50 52 55 57 58 60 62 63 64 65 65 66 66 66 67 67 67 66 65
16 20 25 29 33 36 39 42 44 47 48 48 47 46 46 46 47 47 47 48 50 51 53 54 57 60 62 63 65 66 67 68 70 72 74 74 75 76 74 74 75 73 74
20 24 29 33 36 41 42 43 45 45 46 48 47 48 49 48 48 48 50 52 54 56 58 61 64 66 67 68 70 70 71 72 74 76 79 81 82 82 82 81 81 81 82
23 29 32 37 41 43 44 45 45 43 48 52 52 55 53 50 50 51 53 56 59 62 65 68 71 72 73 73 75 75 77 78 81 82 84 86 88 85 83 82 82 82 81
30 35 37 41 44 45 43 45 46 47 46 53 55 56 54 54 55 57 59 62 64 66 69 72 73 75 75 76 78 77 75 72 71 73 76 77 79 81 77 77 78 79 80
34 38 40 46 47 43 44 46 50 52 50 50 55 55 55 56 59 64 67 69 71 73 78 80 77 79 80 81 79 71 65 65 69 73 72 71 71 72 72 73 76 77 78
39 42 43 48 43 44 50 53 54 54 52 52 55 55 57 60 65 68 70 74 76 80 80 81 83 86 85 82 77 72 69 69 70 72 75 76 76 78 80 81 81 82 86
38 42 47 46 47 50 53 57 58 56 55 54 54 58 61 65 70 75 77 78 78 79 82 86 86 86 80 73 69 71 73 75 77 78 79 79 80 81 81 81 81 82 83
42 46 45 43 49 56 57 59 56 57 55 55 60 64 68 71 76 80 81 81 79 83 83 85 84 76 71 67 67 69 70 68 65 64 63 62 62 62 61 61 60 60 61
42 44 47 51 59 57 57 57 56 58 57 61 64 68 72 76 80 81 82 81 84 83 84 82 74 67 64 65 67 66 60 57 57 56 54 54 53 53 52 49 48 47 48
46 52 56 58 59 59 59 58 57 59 61 66 68 71 75 77 79 83 82 83 83 84 80 73 64 62 64 67 66 61 57 55 52 50 48 47 45 44 42 42 42 41 41
53 57 55 53 56 60 61 58 57 62 65 70 72 77 79 82 84 82 82 82 82 77 73 62 58 62 66 67 63 57 55 53 49 45 43 41 40 40 39 38 39 39 38
55 55 54 56 58 60 59 56 59 65 69 70 74 78 81 83 82 80 80 81 78 72 67 59 60 62 66 64 58 54 53 51 47 44 41 38 36 37 37 37 36 35 35
56 56 56 57 60 60 58 59 63 69 71 72 76 80 82 80 79 78 80 77 71 66 64 59 59 63 64 60 53 52 50 48 46 44 41 38 36 34 33 33 33 33 33
55 56 58 60 60 60 60 63 68 69 69 74 79 78 78 78 78 80 78 69 65 64 63 60 60 62 61 55 51 49 45 45 44 44 41 40 35 34 31 29 29 29 31
57 58 58 60 60 59 61 62 67 72 77 85 81 78 77 79 79 79 72 67 63 63 61 58 59 59 58 52 49 46 43 43 44 42 40 38 33 31 29 28 27 27 29
55 56 59 57 57 62 62 60 68 73 84 82 79 78 80 80 80 75 68 64 62 61 58 58 58 57 54 49 46 42 42 43 40 41 36 35 31 30 28 28 26 27 29
54 58 56 54 61 62 71 74 78 82 81 78 78 80 80 80 77 69 65 61 60 59 58 56 56 56 51 47 43 40 40 41 42 41 35 28 30 28 29 29 27 29 29
57 56 54 58 66 69 72 75 76 78 77 78 80 81 81 79 70 65 61 59 59 58 57 55 54 53 49 44 41 37 38 38 40 41 33 24 28 27 28 30 28 28 32
55 58 61 65 67 71 73 74 76 77 78 80 82 82 80 71 65 63 59 58 57 57 55 55 54 51 47 42 39 36 36 36 36 37 37 28 25 23 26 29 29 27 29
57 60 63 67 70 72 74 75 77 78 80 82 84 81 71 62 61 60 58 57 56 58 56 56 52 49 44 40 37 35 34 35 36 33 34 30 29 23 21 27 29 29 28

GFSMA_500_spd_036.txt.gz
Wind_Speed
14 15 12 12 13 9 10 13 16 19 22 25 29 33 35 38 40 42 43 44 43 43 42 42 39 38 39 39 39 40 41 43 45 47 48 47 47 46 42 41 42 43 45
14 13 15 15 11 11 14 16 20 23 26 30 33 37 40 42 44 44 46 46 45 43 42 42 42 41 40 41 41 41 42 43 44 44 45 48 49 50 50 46 42 44 46
13 16 15 13 12 14 17 21 24 28 31 34 37 40 43 44 44 46 47 47 44 43 44 44 43 43 42 40 40 40 41 42 44 46 47 49 51 54 54 54 51 48 47
12 11 13 13 14 18 21 25 29 33 35 38 41 43 43 44 47 47 46 46 45 45 44 43 41 40 40 42 43 45 46 48 49 50 52 54 56 59 60 62 62 59 56
13 11 12 14 17 21 25 29 33 36 39 41 43 43 44 46 45 44 45 45 44 44 43 41 41 43 45 47 49 51 53 55 57 58 58 59 61 63 65 67 68 68 66
12 11 15 17 20 25 28 32 35 39 41 43 43 46 47 44 43 45 46 46 45 44 44 45 47 49 52 54 55 56 59 61 63 64 65 66 67 69 71 72 73 74 74
13 15 18 21 25 29 31 35 38 40 42 41 45 48 47 46 47 49 50 48 47 47 48 52 56 59 60 59 61 65 68 69 69 70 71 72 74 74 75 78 80 80 80
18 19 21 25 28 33 33 37 40 42 40 44 47 50 54 53 48 49 51 50 49 50 53 57 59 61 64 67 69 70 71 71 72 73 75 76 77 78 79 80 84 87 86
25 28 29 35 37 38 39 42 41 41 43 47 50 52 54 54 53 55 53 54 54 56 60 63 64 66 68 70 71 72 74 76 78 79 79 80 81 81 81 84 89 92 93
23 25 31 36 39 42 42 45 43 44 47 52 53 54 54 54 55 56 57 56 59 63 67 69 71 73 73 74 77 80 80 82 82 82 80 76 73 77 82 85 90 91 92
26 30 34 36 39 41 45 48 46 47 54 57 57 59 58 57 53 56 59 63 64 66 70 73 76 77 79 81 83 86 85 86 83 78 71 67 73 78 79 79 77 76 77
29 33 35 37 43 44 47 47 49 55 59 58 61 61 60 56 56 59 62 64 68 71 74 79 81 81 83 85 87 87 86 82 72 69 67 67 67 66 68 73 79 83 81
31 33 38 40 44 48 49 50 57 61 60 62 63 61 57 57 59 63 67 70 73 77 81 82 82 83 86 87 87 86 75 68 64 68 69 67 63 61 60 60 62 67 75
30 33 35 39 41 50 49 57 59 58 59 61 61 59 58 59 63 67 70 74 78 82 85 85 87 87 86 87 84 74 64 63 66 69 66 60 57 56 55 55 55 55 58
32 36 42 44 49 51 58 60 58 56 58 60 60 59 61 64 67 70 73 76 80 82 81 83 85 87 86 83 75 63 60 64 68 65 58 55 54 52 51 50 49 50 51
37 39 41 49 53 57 63 59 57 57 60 60 62 63 65 69 70 72 74 80 82 80 80 83 85 85 79 71 69 62 61 64 66 58 52 51 49 47 45 45 45 44 44
40 41 47 53 56 63 59 57 58 58 60 61 64 67 69 72 73 74 78 83 80 80 81 83 83 76 72 65 64 61 62 64 62 54 50 48 45 43 42 41 40 40 39
42 46 51 55 60 59 58 59 60 63 61 61 66 67 74 76 74 78 85 81 81 81 83 83 75 69 66 64 60 60 61 63 59 52 49 46 42 41 39 37 37 37 37
48 50 50 53 54 56 57 58 61 60 58 61 69 73 72 81 84 89 85 82 82 83 83 80 69 64 62 62 59 59 59 60 55 50 46 44 43 41 38 35 34 34 34
48 51 53 55 58 58 61 60 57 61 65 67 71 78 85 85 87 86 82 82 83 83 80 73 65 60 60 59 58 57 57 58 52 48 45 42 41 39 36 33 30 29 29
51 54 55 56 57 54 63 66 67 64 68 71 79 81 82 84 83 82 82 83 84 80 72 66 61 59 59 57 56 57 57 54 50 46 43 42 42 37 32 28 26 25 26
54 56 57 59 59 55 59 68 64 66 70 75 79 82 82 82 81 82 83 83 80 71 65 61 59 58 56 55 54 56 55 51 46 45 41 40 42 37 32 27 25 23 23
56 58 59 61 61 60 61 63 66 71 73 78 80 82 82 82 82 83 83 81 72 63 59 59 58 56 55 55 55 55 52 48 45 42 40 39 40 37 33 28 24 22 22
57 59 60 62 62 61 62 64 68 71 75 78 79 81 80 81 83 83 80 75 65 60 56 59 59 57 56 57 56 54 50 44 42 39 39 37 39 35 33 30 26 22 22
60 61 62 61 60 60 63 66 71 74 76 78 79 79 80 82 84 82 76 70 62 60 61 59 58 57 58 57 56 52 46 42 39 36 37 37 39 34 32 29 27 23 23
61 62 62 60 61 63 67 71 75 78 78 78 79 81 84 84 82 79 73 66 63 64 67 63 60 60 59 57 54 48 42 39 37 34 35 34 36 34 26 29 27 26 24

GFSMA_500_spd_039.txt.gz
Wind_Speed
20 14 11 11 11 13 12 12 12 14 17 21 24 28 32 35 37 40 41 42 43 46 47 46 44 42 42 41 40 39 39 39 39 38 39 40 39 40 39 39 41 42 42
13 9 9 11 13 11 11 13 14 17 20 25 28 33 36 38 40 42 43 43 47 48 47 46 45 44 43 42 40 37 35 35 36 37 39 41 43 45 45 45 45 47 48
9 9 11 14 14 12 14 15 18 22 25 29 33 36 38 40 41 42 45 46 46 47 47 47 47 47 46 42 38 38 39 40 41 42 43 45 46 49 52 53 53 53 54
11 10 13 14 15 13 14 18 22 26 29 32 35 38 38 38 40 44 44 45 47 49 47 47 47 45 41 41 41 43 45 46 48 49 50 51 53 54 55 57 60 62 62
12 12 12 12 13 14 18 22 26 30 32 35 37 39 38 41 43 43 44 44 47 50 50 47 46 44 43 44 46 49 51 52 53 55 57 58 59 60 62 63 63 65 68
11 11 12 13 16 19 21 26 29 32 34 38 39 37 41 44 45 45 46 46 46 48 49 48 47 47 46 49 52 53 56 57 58 60 63 65 67 68 68 68 69 70 71
13 15 17 18 20 22 25 28 31 33 36 41 39 41 45 42 45 46 49 50 49 49 49 48 51 52 53 56 56 58 61 64 65 68 70 73 75 76 77 78 77 78 79
17 18 20 21 24 27 31 35 41 39 42 43 41 44 47 51 51 49 48 49 49 49 49 51 52 54 57 60 62 63 65 69 71 74 76 78 80 82 82 82 83 82 83
17 21 25 29 34 34 38 40 39 39 42 43 43 48 52 54 56 59 57 52 51 51 54 56 57 59 61 65 68 70 71 74 78 81 83 85 87 89 91 90 86 83 83
22 26 26 30 30 35 38 39 40 42 46 50 51 53 56 56 58 60 62 61 57 54 57 59 61 64 67 71 75 76 76 80 83 86 88 90 92 92 85 78 73 72 73
21 24 27 31 35 38 41 41 43 46 47 53 56 59 58 57 57 59 58 58 62 63 62 61 63 69 74 78 80 81 81 84 87 88 90 91 87 76 70 69 70 69 68
21 27 29 33 35 39 42 42 42 46 55 55 59 61 60 61 62 62 59 59 63 64 68 68 70 75 80 80 80 84 82 84 88 89 89 85 72 68 68 69 67 62 60
27 30 32 33 35 39 40 47 49 54 57 58 66 62 61 62 62 60 61 63 66 69 72 75 77 78 81 80 80 82 83 85 87 86 78 68 64 67 69 65 58 55 54
29 32 31 32 37 39 43 48 52 56 58 62 63 60 61 65 66 65 64 67 70 71 74 77 80 86 87 84 81 83 84 85 82 75 68 61 62 67 65 57 55 54 53
30 31 32 36 38 41 42 47 57 63 60 67 65 60 63 67 69 66 65 69 68 71 77 78 85 83 83 83 84 84 85 80 71 66 61 59 62 65 58 54 53 51 50
32 34 35 38 41 42 48 55 60 60 65 66 63 63 66 68 65 66 71 68 71 81 84 87 83 84 83 83 83 80 76 70 63 60 57 57 61 60 54 52 50 49 48
35 37 38 42 45 48 50 55 55 59 59 61 65 63 65 65 68 71 73 74 81 87 88 85 85 83 84 83 82 78 68 62 61 59 56 57 61 56 51 50 47 45 45
38 40 41 43 46 50 51 53 58 58 57 64 67 65 65 66 69 75 78 83 86 88 87 85 83 83 83 80 75 69 60 58 58 57 55 57 59 51 51 48 46 43 40
41 42 46 48 50 51 52 54 57 60 60 56 70 76 77 70 73 79 81 83 85 86 85 85 83 82 80 73 68 61 56 55 55 55 55 57 56 48 47 46 43 39 37
44 46 48 49 51 53 56 55 48 60 51 69 67 73 74 72 75 78 81 83 83 84 84 84 84 80 73 66 60 56 54 55 53 54 56 58 54 48 45 41 39 38 33
46 48 50 51 54 57 59 58 60 65 65 68 67 68 69 71 75 79 81 81 83 84 84 84 80 72 65 59 58 57 57 55 55 57 56 56 51 47 45 42 38 33 31
49 52 54 56 59 60 61 63 66 67 67 66 66 69 72 75 77 79 79 81 83 82 81 74 71 66 60 59 58 59 57 57 56 57 57 53 48 44 42 42 39 34 29
53 55 57 59 62 63 64 66 67 67 65 65 69 72 74 77 81 83 84 83 81 81 79 73 68 63 63 62 62 61 60 59 57 55 55 49 45 41 41 39 38 33 28
55 57 59 61 63 65 65 66 66 66 66 68 71 74 79 81 83 84 84 85 85 84 77 72 67 62 65 63 64 63 61 59 55 53 51 45 41 38 39 37 37 33 28
57 59 61 64 65 65 66 67 66 66 68 71 75 79 82 85 84 84 86 86 84 81 77 73 67 63 62 62 61 62 58 57 52 48 45 42 38 37 37 35 36 31 27
59 61 63 64 64 65 66 66 68 70 72 75 79 82 85 86 85 85 85 84 83 76 73 73 72 68 63 59 55 55 53 51 49 44 40 38 35 37 35 33 33 33 27

GFSMA_500_spd_042.txt.gz
Wind_Speed
36 38 17 19 11 10 9 10 11 10 11 14 17 20 23 27 29 31 33 35 37 39 40 41 43 45 45 44 44 44 44 43 40 37 36 37 38 38 38 39 39 38 38
30 19 17 10 11 9 9 10 9 11 13 17 20 23 26 29 31 32 32 36 37 39 42 43 43 44 46 47 47 46 43 39 37 37 37 37 39 41 43 44 45 46 47
23 14 10 11 10 9 10 11 11 14 17 19 23 25 29 33 33 34 38 36 38 40 42 43 44 45 45 47 47 44 43 42 41 41 42 43 44 45 46 46 48 50 52
14 12 10 10 10 12 12 13 14 17 19 22 25 27 31 33 33 36 40 42 40 41 43 44 45 44 44 45 43 45 45 45 45 47 47 47 48 50 51 53 53 54 55
11 10 11 12 12 13 15 15 17 20 21 22 24 30 33 34 36 39 41 44 46 45 44 45 47 46 44 44 46 47 49 50 52 54 54 55 56 57 58 59 60 60 61
12 11 9 13 13 14 15 19 20 23 21 29 35 35 37 38 39 41 44 46 46 49 49 48 48 46 45 45 46 47 49 51 54 55 57 59 61 62 64 66 67 68 70
14 11 12 11 13 16 20 22 25 28 30 35 36 36 38 38 42 44 46 47 48 49 49 50 50 48 48 49 49 50 51 55 58 60 62 64 67 69 71 72 74 76 77
13 12 11 15 18 22 26 28 31 34 37 37 37 39 42 45 47 50 51 51 52 54 54 53 50 50 52 53 53 53 54 62 66 69 71 75 77 78 79 81 82 84 85
12 13 15 18 23 28 31 36 35 40 39 35 40 42 44 48 51 53 56 58 58 58 56 55 55 54 55 57 59 59 64 68 71 75 80 79 81 83 85 85 87 89 91
17 18 20 22 24 27 30 31 34 37 38 39 41 44 50 52 54 59 60 61 61 62 60 58 55 56 58 61 62 64 69 72 77 82 79 80 83 85 85 88 89 91 90
23 26 24 22 24 28 32 34 37 38 42 43 47 50 52 56 58 62 66 65 62 63 65 62 60 59 62 64 66 73 77 78 77 78 81 83 85 86 87 88 85 77 69
26 24 23 22 28 31 32 33 36 38 40 46 53 52 56 62 66 68 71 66 63 65 65 67 68 69 70 68 73 77 80 78 77 80 82 83 84 85 83 78 69 63 62
29 26 23 26 31 32 32 35 37 38 44 49 53 56 60 64 68 69 69 66 68 64 64 67 72 71 70 78 80 80 79 78 80 81 80 81 81 78 71 65 61 60 63
17 22 28 32 32 31 32 39 41 43 47 47 53 59 64 66 69 67 67 68 69 66 66 66 66 76 80 82 81 81 80 80 82 81 80 79 74 65 63 58 58 60 62
25 29 27 28 30 34 37 40 44 46 47 50 54 60 60 66 69 69 66 69 70 72 66 68 75 79 82 83 83 83 83 82 81 82 80 72 62 58 57 55 56 60 60
28 28 27 31 36 37 39 43 47 49 50 52 55 59 62 60 64 65 69 69 78 75 73 72 74 77 80 83 84 84 83 81 79 74 68 61 54 53 53 53 56 57 55
31 31 32 35 38 38 40 43 46 49 51 54 56 61 59 61 61 71 67 78 79 76 74 73 76 80 82 83 82 82 81 80 73 65 60 55 52 52 50 54 56 55 51
32 32 36 38 39 42 44 47 49 51 51 56 58 58 59 60 70 68 74 81 74 74 77 77 79 82 83 82 82 80 77 72 65 57 55 54 52 52 52 54 54 53 49
35 37 39 41 43 45 49 50 51 53 56 59 60 59 61 67 69 69 69 71 74 76 79 82 83 84 83 83 81 78 74 67 59 55 54 53 52 51 50 53 51 48 46
38 40 41 43 45 48 51 53 53 56 59 61 62 64 66 68 68 68 70 73 77 81 83 85 86 84 83 81 79 76 72 63 56 55 56 55 55 54 53 52 49 45 42
39 41 43 46 49 52 54 56 57 60 62 62 64 66 66 67 67 69 72 76 79 82 86 86 86 85 82 77 73 69 66 61 57 58 58 56 55 54 52 50 46 43 41
41 44 47 50 52 54 56 58 60 62 64 63 64 65 65 67 69 72 75 77 81 84 86 85 83 82 79 73 71 69 66 63 59 57 59 56 55 51 50 46 42 41 40
43 46 50 52 54 56 59 61 62 63 63 63 64 65 67 69 72 75 78 81 84 87 86 84 84 80 76 71 70 69 68 64 59 57 58 54 50 47 45 41 37 39 40
47 50 53 55 57 59 61 62 62 63 64 64 64 66 68 71 76 79 82 85 88 88 85 85 84 80 75 70 68 66 65 61 56 54 54 52 46 43 40 36 34 36 38
51 53 55 58 59 61 62 61 62 63 63 64 67 69 72 76 79 83 87 91 91 88 85 83 79 74 70 67 66 64 61 57 52 50 48 48 42 40 36 31 32 34 37
54 56 59 60 62 64 62 64 66 65 66 67 69 71 75 79 83 87 91 94 94 91 89 82 73 70 68 65 61 57 46 55 48 47 41 43 40 38 31 29 30 33 34

GFSMA_500_spd_045.txt.gz
Wind_Speed
33 33 33 30 22 20 17 13 14 13 12 12 12 12 15 17 17 20 21 23 27 30 32 33 34 35 37 39 39 39 40 41 42 41 40 41 40 39 37 37 38 39 39
19 26 28 17 23 19 14 13 13 13 13 12 14 15 17 18 20 22 24 27 29 31 34 35 36 38 40 41 42 42 42 42 42 42 42 42 42 41 41 42 43 43 44
15 24 20 21 15 12 12 13 15 13 12 13 15 17 18 19 22 24 26 29 32 34 37 39 39 39 41 42 43 42 41 42 42 44 45 45 45 45 45 46 46 47 48
14 23 18 15 13 13 15 15 15 13 14 16 16 16 21 25 28 29 29 30 34 38 40 41 41 42 43 44 44 44 42 43 44 46 47 47 47 48 51 52 53 53 52
21 18 14 12 11 15 16 17 16 17 18 17 16 21 25 26 29 32 34 35 36 39 42 43 44 45 46 47 46 45 44 45 47 48 48 49 51 52 54 56 58 59 60
18 13 10 13 14 15 17 18 19 19 19 21 21 25 28 28 29 32 36 40 41 43 44 45 47 48 49 48 47 46 45 47 48 49 50 51 54 58 59 60 61 62 63
13 11 11 14 16 17 17 19 20 23 23 27 31 30 30 32 34 37 41 43 45 46 47 51 51 51 50 49 48 47 46 48 51 53 54 57 59 63 64 66 68 70 72
9 11 14 17 19 19 18 21 23 27 31 33 35 32 32 32 36 41 45 47 48 50 55 58 57 53 49 48 49 51 52 54 57 60 61 65 69 71 73 74 75 75 76
12 14 16 19 17 22 20 22 26 27 28 30 34 34 37 36 39 43 48 49 51 51 56 58 56 53 51 51 55 57 57 59 60 62 69 72 71 73 75 76 78 78 80
14 16 17 18 18 24 23 24 27 29 32 37 35 35 37 39 45 47 49 53 55 56 60 59 56 56 57 57 62 66 58 60 64 68 69 70 72 76 77 77 80 81 84
19 19 22 24 26 26 24 28 29 31 32 36 35 39 39 43 48 49 52 55 61 60 60 61 59 61 61 64 68 67 66 68 68 68 72 76 77 78 79 80 82 83 84
23 27 24 26 23 25 28 30 31 32 33 32 37 41 44 49 51 52 54 56 61 63 63 60 61 62 67 71 71 71 69 68 69 73 76 79 79 80 82 82 83 82 80
24 29 33 28 26 29 29 31 32 32 34 38 43 45 49 51 54 56 57 59 60 61 63 66 68 67 71 78 73 71 73 73 75 78 80 81 81 82 82 81 79 73 70
9 9 10 16 23 25 25 23 28 35 37 39 42 46 50 51 56 58 58 60 60 62 62 67 73 74 78 79 75 74 75 76 79 81 82 81 82 81 78 74 68 63 61
14 16 19 21 23 25 30 34 36 37 38 41 44 47 48 47 56 58 59 59 59 60 63 69 69 75 76 75 75 76 79 81 83 82 81 80 79 76 68 64 58 57 55
20 20 22 25 27 30 33 36 36 38 40 43 47 45 48 51 56 59 60 61 61 62 65 69 67 68 73 76 78 80 83 84 84 81 78 76 71 63 58 57 54 54 54
25 23 27 27 29 33 36 37 38 41 43 45 45 44 53 46 61 60 61 62 64 64 64 65 67 70 73 76 81 83 86 85 83 81 77 71 61 56 56 55 56 55 55
27 27 29 31 33 35 38 39 41 44 46 46 47 49 51 55 59 60 63 64 65 66 67 67 69 72 76 80 84 87 88 86 84 80 74 66 56 56 57 56 56 57 55
27 30 32 33 34 37 39 41 43 46 49 50 51 46 55 59 60 62 64 64 64 67 70 71 72 75 78 83 87 89 88 86 83 77 71 63 55 57 57 56 56 54 53
32 33 33 35 36 38 40 43 46 49 51 52 54 56 60 62 63 63 63 64 66 68 72 76 78 78 83 86 91 89 86 83 77 73 67 58 54 55 56 56 56 53 49
35 35 35 36 37 39 42 47 50 52 54 55 57 58 61 62 64 64 64 66 68 71 75 79 81 86 88 89 88 85 81 76 73 68 64 58 54 54 54 54 54 50 48
35 34 34 36 39 44 48 50 53 55 57 58 59 58 61 64 63 64 65 68 72 75 78 82 86 90 89 90 86 82 75 72 71 66 63 57 55 54 52 53 51 48 45
34 35 37 41 44 49 52 55 56 58 58 59 58 60 63 64 65 65 67 70 72 77 82 86 89 90 91 88 86 79 70 70 69 64 59 51 53 53 53 51 49 45 43
36 38 42 46 50 54 56 57 58 59 60 60 60 64 67 68 68 69 70 71 75 80 83 88 91 92 91 88 81 75 71 69 65 60 52 52 52 49 48 46 43 42 39
39 43 48 51 54 57 58 58 59 59 60 60 65 69 71 72 74 76 76 77 79 81 86 90 91 91 90 85 76 72 66 63 58 50 45 48 50 47 44 41 39 39 36
45 50 53 57 59 60 60 59 60 60 59 65 69 72 75 77 78 80 82 84 85 87 91 93 91 88 85 77 69 66 62 57 53 50 34 46 47 48 48 44 39 36 34

GFSMA_500_spd_048.txt.gz
Wind_Speed
19 17 19 18 16 19 20 24 27 19 15 16 15 11 12 14 17 18 17 17 17 19 21 24 28 31 33 34 36 38 38 39 40 40 40 41 41 42 43 43 43 42 42
15 16 17 14 16 17 17 23 16 16 17 16 14 14 14 15 17 17 18 20 21 22 25 27 30 32 34 37 39 40 41 41 41 41 41 41 42 44 45 44 44 44 45
16 18 18 17 17 19 22 16 16 17 18 17 15 16 17 15 16 19 20 21 23 26 27 29 32 34 36 38 41 41 42 43 43 42 42 42 43 44 45 46 46 46 46
20 20 14 16 20 19 17 17 18 20 20 19 18 17 17 16 18 19 20 23 26 28 30 32 36 38 38 38 41 44 44 44 45 43 43 45 45 46 47 48 50 51 52
19 16 16 21 18 16 15 18 20 20 20 19 18 21 20 21 24 23 22 26 32 33 34 36 39 41 41 41 44 46 48 48 46 44 44 45 48 49 48 50 53 56 58
17 21 20 18 17 17 21 21 21 21 19 21 23 25 24 26 26 28 27 31 34 36 38 40 41 43 44 46 48 49 48 49 47 47 50 54 53 52 54 55 57 60 61
26 20 19 19 19 20 22 22 21 22 22 24 25 28 29 31 28 28 29 32 36 38 41 43 44 45 46 48 51 49 49 47 48 52 57 56 57 59 59 60 61 63 64
18 20 20 19 19 21 21 21 20 21 23 25 26 26 27 29 32 31 36 38 40 42 44 46 46 47 49 50 49 51 51 51 55 59 60 61 62 63 65 66 66 67 69
13 16 19 21 19 20 22 22 24 24 23 27 27 30 30 32 33 34 37 39 41 44 47 48 48 52 53 53 51 55 56 58 62 66 65 63 63 67 69 70 72 73 75
13 16 16 19 21 23 21 22 27 28 27 28 30 32 33 35 35 36 38 41 43 47 49 51 53 54 54 54 54 55 56 60 65 69 67 67 69 71 73 75 77 78 80
16 17 17 20 20 22 24 26 31 27 28 30 32 35 36 35 37 38 40 45 47 49 51 53 56 57 56 56 57 57 58 60 62 65 67 70 73 76 77 78 79 81 82
17 22 20 23 24 26 26 26 26 30 32 34 37 39 38 39 45 41 44 48 49 48 54 56 57 59 58 59 58 58 60 60 62 66 69 72 75 77 80 82 83 85 86
7 17 20 22 25 24 31 28 28 30 28 28 30 38 39 38 41 44 45 49 50 49 54 58 60 59 61 60 59 61 63 65 67 69 71 74 78 83 86 88 88 86 85
7 8 14 24 29 27 23 27 27 26 27 31 36 37 39 40 43 50 48 49 52 54 58 61 60 60 60 59 60 62 65 68 71 72 76 80 84 88 91 90 87 83 77
14 12 14 15 18 22 25 28 29 31 33 36 35 38 40 44 46 49 47 58 57 57 61 63 62 62 61 61 62 65 68 70 73 76 81 85 89 91 89 85 79 75 69
17 16 17 20 21 24 28 29 29 31 34 35 37 39 42 45 47 45 54 60 57 61 60 59 59 59 62 64 67 69 71 74 78 82 86 89 90 87 81 73 68 67 61
22 21 19 22 26 27 29 30 32 34 35 36 40 42 45 47 48 50 51 51 59 59 59 57 57 60 64 66 69 73 75 78 82 87 90 90 88 83 76 69 65 64 60
22 20 22 24 28 30 31 32 33 34 35 38 42 45 47 51 52 53 53 53 54 58 60 60 61 64 66 69 71 75 77 81 86 89 90 90 87 79 71 63 61 62 60
26 23 24 27 30 33 33 33 34 36 38 42 45 49 51 52 53 53 54 53 58 60 63 64 65 67 69 71 75 78 80 87 90 90 90 87 81 73 68 60 58 59 56
28 26 29 30 33 34 35 35 37 39 42 46 49 52 54 54 55 56 53 56 61 64 66 69 70 72 74 74 79 83 86 89 90 89 86 79 74 70 66 62 58 57 55
29 31 33 33 35 36 37 38 39 42 46 49 53 56 56 56 57 56 56 62 66 67 69 72 75 77 78 81 83 86 91 92 91 87 80 74 72 69 65 55 57 50 56
35 35 36 37 38 39 39 40 43 46 50 54 57 57 58 59 58 57 61 64 68 71 75 76 78 81 83 87 88 93 96 97 95 85 75 69 69 66 57 55 52 50 58
38 37 39 39 39 40 42 44 48 51 56 58 59 59 59 58 56 58 65 69 72 75 79 82 80 84 87 91 95 96 95 93 90 77 70 65 62 59 50 45 52 52 51
37 38 39 39 40 42 45 49 53 57 60 62 62 62 63 63 62 65 72 74 73 78 80 83 83 84 89 92 94 97 96 91 83 73 67 65 56 50 37 38 47 50 46
39 40 40 42 45 48 51 54 57 60 63 64 63 64 65 66 69 73 75 74 76 78 79 81 83 86 90 93 95 97 91 86 78 67 62 60 52 44 29 37 49 47 45
43 44 45 47 49 52 55 60 63 65 66 68 70 69 69 70 73 75 77 79 82 80 80 80 83 87 90 91 91 90 87 79 71 64 59 53 47 39 38 38 40 45 47

GFSMA_500_spd_051.txt.gz
Wind_Speed
14 18 18 16 16 18 17 15 17 22 27 30 29 19 23 19 16 16 15 16 17 17 18 18 20 23 25 28 30 33 35 36 38 40 42 43 42 42 43 44 44 45 46
16 18 19 17 21 19 17 16 18 23 29 29 22 25 21 15 16 17 18 18 16 16 17 19 22 25 29 32 34 36 37 40 41 43 43 42 43 43 44 44 44 44 46
18 15 16 17 23 21 17 19 21 22 25 25 24 23 18 16 18 19 20 18 17 17 19 23 25 28 31 33 36 38 40 43 43 43 44 44 45 45 45 44 43 43 45
21 20 22 24 24 18 18 21 23 23 21 22 24 21 19 17 20 20 23 22 22 24 24 28 29 32 33 35 38 40 42 44 44 44 45 46 46 46 46 45 46 46 46
21 22 23 24 19 18 23 23 22 22 24 25 23 21 21 21 22 24 27 27 28 29 28 31 33 37 38 39 41 43 44 45 47 47 46 46 46 44 45 46 47 48 49
25 24 25 19 20 23 23 24 23 23 23 23 23 23 23 24 26 29 32 29 30 30 29 33 37 38 41 43 44 46 46 47 48 49 49 50 48 47 46 48 49 50 51
27 25 21 23 21 20 23 21 19 22 23 23 23 24 26 29 31 28 27 30 33 34 37 36 38 40 43 46 48 48 49 50 49 50 49 48 49 50 50 51 52 53 56
23 28 27 24 23 23 18 19 21 24 24 24 23 27 29 28 30 30 30 31 32 34 35 38 41 43 46 49 49 50 52 52 51 51 50 51 53 55 55 55 56 58 60
23 23 22 23 23 21 21 21 22 24 26 24 28 30 29 28 30 31 33 34 34 36 38 40 43 47 49 49 51 53 53 53 54 52 51 54 57 59 59 60 61 63 66
17 17 18 22 21 23 23 23 24 26 29 30 31 32 32 31 32 32 35 34 36 38 40 43 45 49 52 50 51 53 53 54 54 54 56 58 59 61 63 64 66 69 72
17 19 22 20 19 24 25 26 28 27 29 32 33 35 36 35 36 36 35 36 40 42 46 50 46 49 51 51 52 53 54 54 54 57 60 62 62 63 65 68 71 75 80
16 21 24 22 23 23 24 25 26 29 32 31 32 36 38 35 31 34 36 38 40 43 51 57 51 53 53 55 55 56 56 56 58 62 64 66 65 67 69 72 77 82 86
9 18 21 22 24 25 26 26 29 32 35 35 36 36 33 33 36 36 39 39 42 47 52 51 54 59 58 57 57 57 57 59 63 66 68 68 69 72 75 78 84 88 90
10 9 17 16 22 25 26 28 22 29 36 37 35 34 36 36 36 40 39 42 45 48 49 51 54 55 58 56 55 56 58 62 66 69 69 71 75 78 80 85 90 92 93
15 14 15 19 22 21 26 31 33 31 32 34 38 40 39 38 36 38 41 46 49 51 51 50 52 52 54 55 57 58 61 65 68 71 71 75 79 82 87 90 93 93 91
24 22 21 22 22 25 26 27 30 32 33 34 36 37 37 36 38 41 45 48 51 53 53 51 49 49 54 57 59 63 66 70 71 72 75 79 83 86 90 92 92 91 84
33 33 30 27 30 29 25 29 31 33 34 35 36 37 36 38 42 45 49 51 54 53 53 53 50 51 57 59 61 65 68 72 76 77 79 82 85 88 92 92 91 85 75
36 44 38 26 27 26 26 30 32 35 35 35 37 38 39 42 46 49 51 53 53 54 55 56 53 57 59 61 64 68 71 73 77 81 82 83 87 91 92 91 85 77 71
21 29 25 24 27 29 28 31 35 35 36 37 38 40 43 46 49 52 55 56 56 58 60 57 57 59 63 67 69 74 75 76 79 82 84 87 90 91 90 86 79 71 69
23 26 29 27 28 31 32 35 38 39 39 40 41 44 47 50 53 55 57 58 60 61 62 62 64 67 72 72 76 78 77 80 81 83 86 90 90 90 88 80 73 67 67
28 30 29 29 30 34 36 37 40 41 41 43 45 47 49 52 55 57 59 61 63 64 64 66 69 73 73 76 80 81 82 82 80 85 88 91 91 90 84 75 68 65 64
33 31 31 32 35 36 39 40 43 44 45 47 48 50 53 56 59 61 63 65 67 66 67 70 73 74 78 82 83 84 85 88 91 88 93 96 91 90 78 69 65 63 60
37 37 32 32 37 41 43 44 44 46 49 50 51 54 58 60 62 65 69 68 68 69 71 74 75 79 83 84 86 86 88 92 92 91 95 99 88 83 69 64 62 61 53
41 38 35 38 40 43 44 46 48 50 52 53 56 59 61 64 67 72 72 68 69 71 73 76 80 84 85 86 88 89 91 91 90 93 92 97 83 75 65 60 59 53 43
40 40 41 42 45 47 48 49 50 52 55 58 60 63 66 68 69 74 74 71 70 73 77 80 82 83 85 86 89 92 92 93 94 97 87 92 77 70 62 58 55 44 36
42 44 47 48 48 49 51 52 53 56 59 62 64 67 70 71 76 79 73 74 77 80 81 82 83 84 85 86 88 91 93 95 97 100 83 82 70 64 60 56 46 34 39

GFSMA_500_spd_057.txt.gz
Wind_Speed
44 36 31 32 24 19 23 22 18 27 25 26 21 23 26 25 27 25 24 21 19 18 18 18 18 17 19 21 21 22 23 25 27 28 29 30 31 31 32 34 35 37 39
47 39 37 32 23 20 23 25 21 25 27 26 25 27 26 27 25 26 23 20 21 19 19 19 19 19 21 22 25 25 27 27 28 30 30 31 32 34 35 35 36 37 36
45 37 37 33 27 23 25 27 28 28 27 26 25 27 28 28 26 25 23 23 20 20 19 18 21 24 27 28 28 29 29 29 30 32 32 34 34 36 36 37 38 35 31
37 35 36 34 31 28 30 29 26 29 27 25 28 30 29 28 29 28 25 25 21 24 23 25 25 28 29 31 34 33 33 32 32 33 34 35 36 39 40 39 38 34 34
32 33 33 29 24 26 30 27 26 26 28 27 30 31 31 30 30 25 26 23 25 25 27 30 33 33 32 33 35 35 32 33 33 34 35 38 41 41 41 40 37 35 36
31 32 27 22 22 25 26 27 27 29 30 27 32 35 33 33 30 25 25 26 27 29 31 33 34 34 34 35 33 32 33 34 36 36 38 39 42 45 42 38 36 37 39
30 30 27 26 23 24 27 26 28 28 27 27 30 28 31 24 22 27 26 28 30 31 32 34 35 35 34 36 34 34 33 34 37 40 42 44 44 47 41 39 40 41 42
28 28 28 27 24 24 27 27 26 26 27 24 21 21 22 25 27 26 29 30 32 34 36 36 36 37 39 38 37 37 38 40 44 45 47 49 49 46 42 42 44 45 47
30 28 28 30 27 26 27 27 26 26 24 23 24 26 28 28 29 31 30 30 33 36 37 38 40 38 36 36 38 38 39 41 45 49 50 50 51 46 44 47 48 49 52
25 32 29 31 27 28 28 28 29 25 26 27 30 31 31 31 32 30 31 32 37 36 38 37 36 38 38 38 38 40 43 45 48 50 51 52 50 49 50 50 51 54 57
24 29 33 30 30 29 31 31 27 26 26 28 30 30 29 27 30 33 34 36 38 39 39 38 39 38 39 41 42 42 46 49 50 50 50 50 49 52 54 56 57 61 64
19 19 23 24 26 25 26 28 28 30 33 34 31 29 30 29 32 34 36 39 41 40 39 39 40 42 39 39 42 46 49 50 50 51 52 52 55 57 59 61 64 66 67
19 19 20 21 23 26 31 33 32 33 36 35 30 30 32 35 35 33 40 42 42 41 42 43 44 39 39 41 45 47 49 50 52 54 55 56 58 61 64 64 66 66 71
19 19 18 20 26 31 34 35 35 33 33 32 32 34 33 37 34 42 42 41 43 45 41 41 40 39 41 43 47 49 51 52 54 56 58 59 60 63 66 70 70 72 75
21 20 21 22 23 27 31 34 35 35 35 32 34 37 41 37 40 42 46 44 44 43 43 39 41 42 43 44 49 51 54 56 59 61 61 61 64 66 69 71 72 75 75
21 23 23 23 25 25 25 28 31 33 35 32 35 35 39 41 46 46 46 45 44 45 44 43 43 43 45 48 51 54 57 61 63 64 64 64 65 66 68 71 72 76 78
24 25 28 30 29 29 30 32 33 36 38 37 43 44 44 45 44 47 47 46 46 45 45 45 47 47 50 54 56 57 60 63 66 66 66 66 66 68 71 73 76 78 79
21 26 33 31 27 32 33 39 46 47 46 42 44 48 48 46 46 48 46 48 47 47 49 50 50 52 54 57 59 62 64 66 72 67 67 67 69 71 73 75 78 80 80
22 30 26 28 27 29 31 36 31 40 39 39 45 47 46 44 44 44 46 49 50 52 52 53 55 55 58 61 64 66 68 70 75 70 68 70 72 75 78 81 81 80 82
32 34 29 29 36 33 34 34 32 34 37 35 41 36 44 46 49 50 51 53 55 55 55 56 58 61 62 65 66 69 71 74 79 73 70 73 76 79 80 81 81 82 84
36 34 32 32 39 36 35 41 39 40 37 38 43 39 47 50 53 54 54 55 56 57 59 60 62 63 66 66 69 71 74 78 76 73 74 77 80 81 82 81 84 87 87
36 37 37 38 42 40 38 43 42 39 40 37 39 46 48 50 52 54 55 56 58 60 62 63 64 65 67 68 72 74 77 75 74 78 80 80 83 83 85 86 87 88 89
37 38 40 42 41 42 43 43 45 41 40 43 42 46 50 52 54 56 58 59 61 63 62 63 65 67 69 72 74 78 78 75 80 82 83 83 85 85 86 86 88 90 92
39 39 40 40 40 42 44 48 47 46 46 47 48 50 53 57 60 61 62 63 63 64 64 65 68 70 73 75 80 77 77 83 84 85 87 85 85 84 85 85 86 90 94
37 37 38 40 40 40 41 44 47 49 49 51 52 54 58 60 63 65 65 64 66 66 67 70 72 73 76 80 79 83 84 86 87 88 86 87 85 84 83 83 87 93 96
35 36 37 39 40 42 42 44 48 50 52 53 54 56 52 69 67 66 65 67 68 69 71 72 74 78 81 80 85 87 88 88 90 87 84 86 84 86 84 83 88 92 90

GFSMA_500_spd_060.txt.gz
Wind_Speed
34 47 43 40 34 27 28 27 27 23 25 27 22 21 22 24 22 24 25 24 23 21 17 17 17 18 18 19 20 19 22 25 26 27 27 29 29 30 31 31 32 32 33
35 50 45 38 31 28 30 26 28 24 27 23 26 25 24 25 26 25 25 25 22 19 17 19 19 18 19 20 22 24 26 28 31 31 30 30 31 31 30 31 33 34 32
40 49 48 38 34 31 31 30 30 31 30 25 25 25 25 27 29 26 27 24 24 21 20 20 21 19 21 24 27 29 30 32 34 34 33 31 31 31 31 33 33 33 31
38 52 49 45 38 36 35 30 31 33 32 29 27 25 26 30 30 29 28 26 24 20 25 22 22 26 27 31 32 31 32 34 34 36 34 33 35 36 34 33 32 33 33
34 50 51 48 40 40 36 35 35 35 33 29 25 27 30 32 30 29 29 28 28 24 26 23 27 27 29 32 34 35 34 35 35 32 32 32 35 39 39 40 36 36 34
32 38 48 38 38 37 34 35 35 34 28 26 27 30 33 34 32 28 30 32 23 26 26 31 29 31 31 32 33 36 36 36 33 32 34 37 40 41 44 45 41 41 37
33 37 36 37 31 26 30 28 28 27 27 28 28 31 35 37 30 33 33 32 27 29 30 32 32 33 34 35 35 38 38 36 35 35 35 37 42 45 46 44 44 42 41
32 35 33 30 26 30 28 25 25 27 26 29 31 34 33 34 36 32 32 28 30 31 32 32 34 35 36 36 37 36 35 35 33 35 39 40 41 43 44 44 44 44 45
24 26 30 31 32 31 32 30 27 27 31 28 29 27 26 27 28 31 27 30 32 32 33 34 36 36 38 39 35 34 36 36 36 41 41 41 42 45 44 44 45 45 47
28 24 28 33 33 32 31 32 30 29 27 28 27 26 27 28 30 30 31 33 34 35 36 37 39 41 39 40 38 37 36 40 40 39 40 42 45 46 48 47 48 49 50
26 28 31 38 33 33 35 36 28 28 27 26 26 28 30 32 34 34 31 33 36 38 40 41 43 44 42 39 40 44 44 39 39 40 42 44 46 48 50 53 53 54 56
33 29 30 33 35 35 36 31 29 28 28 28 30 30 33 35 37 35 32 37 31 42 45 41 45 47 42 43 45 42 42 41 41 42 44 45 47 52 55 55 56 57 59
26 28 26 32 29 29 31 27 28 29 28 31 32 31 34 35 36 36 39 38 42 44 41 44 44 44 45 44 44 45 44 43 44 45 48 49 52 56 57 58 57 59 62
16 18 20 20 20 22 24 28 31 31 33 35 35 34 37 38 38 39 43 47 39 48 39 46 43 43 47 47 46 47 47 48 48 49 50 54 56 58 62 60 61 63 65
15 17 21 22 21 20 24 27 29 31 36 37 37 39 38 39 38 44 44 45 48 46 50 45 45 48 48 48 49 49 48 48 50 53 57 59 62 62 64 66 66 67 68
21 23 25 25 23 23 25 27 25 29 32 34 38 41 42 39 44 40 42 45 42 38 53 49 47 49 51 50 51 52 52 52 56 57 60 64 65 66 67 72 68 67 68
21 25 25 25 26 28 29 31 30 31 34 34 36 39 44 47 46 44 45 45 54 55 56 55 48 51 52 53 54 55 58 58 60 61 64 67 68 69 71 75 70 68 71
23 25 23 27 28 31 33 33 34 36 35 38 45 46 46 47 48 51 56 55 53 51 56 52 48 51 54 55 59 59 60 60 62 65 66 69 71 72 75 75 70 73 77
27 28 26 28 31 34 32 34 36 34 34 38 40 46 53 54 55 55 58 58 53 56 48 48 52 55 59 61 62 62 63 63 66 67 70 71 73 76 79 76 77 80 83
25 26 27 28 34 32 34 32 38 39 40 42 43 46 48 40 47 51 45 48 53 50 53 52 57 61 62 64 65 65 65 67 68 70 71 73 76 79 77 80 84 85 86
26 28 28 29 33 31 31 39 40 44 44 44 45 47 44 46 46 48 54 47 47 52 56 60 62 63 64 65 66 67 68 69 71 72 73 76 78 79 81 84 86 87 87
29 30 31 36 36 37 36 38 41 43 43 48 48 50 45 49 53 47 50 55 50 41 63 62 64 65 62 70 70 70 70 71 72 75 76 79 81 81 85 87 86 88 88
36 36 38 40 40 41 40 41 43 46 44 45 48 48 51 41 48 49 51 54 55 57 64 63 62 60 73 73 74 72 72 73 75 77 79 79 82 85 88 88 89 89 86
42 43 43 43 44 42 41 41 43 46 47 44 46 48 51 49 52 54 54 56 56 59 54 65 70 74 76 75 75 74 75 76 77 81 85 87 87 88 90 91 90 86 85
43 45 45 47 47 47 43 43 45 45 46 47 47 48 50 53 54 54 55 52 55 64 65 68 71 77 77 76 77 77 78 78 83 87 90 89 91 91 91 90 86 83 83
36 40 43 46 49 48 45 45 47 48 49 50 52 53 54 55 58 58 54 60 65 73 66 79 84 82 79 80 80 80 83 85 89 90 91 91 93 93 91 86 82 81 84

GFSMA_500_spd_063.txt.gz
Wind_Speed
40 43 46 45 42 37 33 33 33 29 23 22 20 22 21 20 21 22 23 22 22 21 21 21 17 15 14 16 17 17 19 21 22 24 27 28 29 28 28 29 29 32 33
49 44 46 49 48 41 36 35 35 29 24 24 23 26 29 28 28 24 25 25 24 22 21 19 14 14 15 17 20 18 22 25 27 28 29 31 31 31 30 29 32 35 38
42 44 44 57 48 42 37 37 35 30 27 27 28 26 24 25 26 24 27 27 24 21 20 16 20 16 19 20 20 23 26 28 29 29 31 31 31 30 29 28 32 36 38
39 38 30 47 49 45 38 38 34 30 29 29 32 29 28 24 25 29 31 29 26 24 21 20 19 19 19 22 25 27 29 30 31 32 31 32 32 31 30 33 35 38 43
42 41 40 40 52 49 41 38 34 28 27 29 29 31 30 27 28 30 33 31 28 24 23 26 20 23 23 27 29 28 29 30 30 32 35 35 32 32 33 34 36 39 42
36 36 43 39 53 51 44 40 35 35 32 31 34 31 29 30 31 33 33 31 28 27 29 23 22 26 28 29 29 29 29 31 34 35 35 35 34 31 34 36 37 39 41
30 28 34 40 47 52 46 42 38 36 33 35 35 31 29 30 33 34 33 33 33 32 26 25 26 28 30 29 30 31 32 33 33 35 35 33 31 35 35 37 38 39 40
31 28 26 21 39 43 36 37 31 31 32 31 31 30 31 33 33 34 34 32 29 28 26 30 29 31 29 28 29 31 35 37 38 38 34 31 35 35 35 35 37 39 42
23 20 17 18 24 24 27 26 27 29 28 28 29 30 34 32 35 33 33 31 31 29 28 31 31 31 32 34 32 36 39 40 39 38 38 42 37 38 37 36 38 41 45
22 21 15 18 25 28 28 28 29 30 31 28 30 30 33 31 20 23 31 32 30 32 31 32 31 33 36 38 39 40 40 39 39 41 39 40 41 43 44 45 45 46 49
16 15 19 26 21 24 32 35 31 29 30 23 20 26 24 26 26 23 24 26 29 32 33 35 33 38 38 40 42 41 38 41 41 41 43 44 45 47 47 49 49 52 52
23 19 23 26 25 24 29 33 29 32 34 29 22 22 21 23 26 29 30 31 32 34 35 39 39 42 45 48 46 42 40 41 43 45 46 47 48 50 51 53 54 55 57
29 26 26 28 30 28 29 33 36 36 32 24 19 21 23 27 30 34 35 35 36 38 40 41 42 40 48 53 49 40 39 43 46 45 47 50 51 54 55 56 56 58 60
25 24 22 24 17 19 27 29 28 28 25 25 22 24 27 29 33 36 37 40 42 42 43 45 46 51 54 50 45 40 39 46 48 47 49 52 56 58 58 59 60 61 63
9 9 12 16 18 17 19 21 21 22 25 26 28 30 32 34 37 38 39 39 43 44 42 44 50 52 51 56 50 43 45 48 48 48 49 54 57 58 61 62 63 65 66
15 17 19 18 18 20 20 23 20 21 24 25 29 32 35 36 39 41 43 45 44 47 51 46 49 45 50 55 59 55 51 50 50 51 53 55 58 61 63 64 66 67 70
18 20 22 22 23 26 27 25 24 25 28 28 30 32 33 34 38 41 42 46 49 53 56 54 52 51 58 66 57 56 50 51 53 53 55 58 62 64 66 68 68 70 73
22 21 20 20 21 23 28 29 30 30 30 32 34 37 37 39 44 46 49 53 50 59 54 50 57 52 55 61 55 54 51 54 57 57 58 61 65 67 68 70 71 74 76
24 25 27 28 28 30 29 29 31 32 37 39 40 41 41 41 43 46 49 49 50 52 58 60 58 53 60 57 58 62 57 61 62 63 64 65 69 70 71 71 73 75 78
23 25 27 27 26 28 29 28 35 30 37 38 42 44 45 47 46 48 50 51 48 51 55 61 57 52 58 64 64 57 59 62 66 68 65 72 75 74 72 74 77 79 80
31 32 31 29 27 28 26 28 32 33 34 40 43 44 44 45 46 50 52 52 57 54 49 49 51 44 53 56 62 56 69 68 59 62 69 75 75 76 76 77 80 79 83
37 37 37 36 34 32 31 32 36 39 40 42 44 47 49 46 46 54 53 53 51 56 53 53 50 53 54 58 59 68 66 65 63 69 76 74 77 78 79 81 82 87 87
40 40 41 41 42 43 43 41 41 45 46 46 45 45 46 48 47 52 52 51 52 51 53 54 55 61 61 61 64 62 68 60 70 76 80 80 80 83 83 83 87 90 90
39 40 41 42 45 47 48 49 50 50 52 51 52 50 48 48 48 47 57 56 55 55 57 58 57 65 66 68 70 72 73 67 76 83 83 83 90 86 88 89 92 94 94
36 36 41 44 47 47 47 48 50 52 51 52 54 54 53 53 54 54 56 57 59 59 63 58 62 66 61 63 69 76 81 88 86 89 92 92 87 88 92 93 94 96 96
43 39 38 39 43 44 45 48 51 54 55 55 56 57 57 57 58 58 60 61 61 62 62 67 72 70 65 74 80 84 87 93 96 92 86 90 94 94 92 94 97 96 93

GFSMA_500_spd_066.txt.gz
Wind_Speed
28 30 28 30 37 37 37 35 28 27 27 27 26 27 26 19 20 17 16 16 17 19 20 17 14 17 14 11 11 12 13 14 16 18 20 23 24 25 26 27 27 25 24
27 30 33 30 33 39 39 36 32 30 30 29 29 28 27 21 22 21 23 21 20 21 20 19 20 15 12 12 13 14 15 15 20 23 24 25 27 26 26 27 26 25 27
33 33 37 35 39 42 44 37 37 35 33 30 29 30 27 21 21 21 21 21 21 23 20 22 20 17 16 18 17 16 17 20 23 23 23 24 26 28 30 29 26 26 28
37 42 37 41 40 44 48 45 41 37 35 33 32 30 29 27 25 23 23 23 22 22 25 23 22 19 18 18 15 17 22 22 21 22 24 26 30 32 31 27 26 27 31
40 41 44 48 47 46 49 51 46 40 37 35 34 31 29 27 26 26 25 24 24 25 27 26 24 24 23 19 19 22 22 20 23 25 26 28 31 32 29 29 28 31 33
38 41 38 33 34 42 38 50 50 41 38 38 35 28 27 25 25 26 27 27 27 27 28 28 29 28 21 22 24 24 23 23 21 23 27 30 32 31 28 29 32 35 37
37 39 42 41 38 42 42 52 52 45 41 40 37 29 28 30 28 28 29 30 28 27 27 31 32 26 25 26 24 24 22 22 24 24 28 32 31 33 32 33 36 36 38
29 36 33 34 31 35 49 42 47 50 42 43 36 31 31 27 26 28 29 32 30 25 25 25 25 27 28 27 26 25 25 27 27 27 31 32 32 32 34 34 37 39 42
26 33 36 36 29 28 30 30 43 42 35 35 28 27 27 24 27 29 31 32 28 24 25 25 25 28 30 28 29 30 31 31 32 32 31 31 28 30 33 34 37 41 42
24 22 20 15 11 10 9 13 25 24 26 23 24 26 26 25 27 25 23 23 25 24 26 28 29 29 29 32 30 29 34 35 39 37 34 29 31 33 35 35 38 42 45
6 16 20 13 10 5 6 20 23 24 24 24 27 28 27 21 20 20 26 23 16 23 26 27 28 29 32 35 35 37 36 38 44 44 34 33 37 37 37 37 39 43 47
10 5 10 11 11 13 12 12 22 24 24 26 27 29 27 21 20 19 21 23 25 27 27 29 31 34 34 35 37 38 38 43 47 45 45 33 37 41 41 41 41 45 49
17 18 18 19 16 17 18 18 21 24 25 30 29 27 23 22 25 22 21 24 27 28 32 35 36 38 40 41 43 45 49 49 50 48 42 37 39 43 43 44 45 47 51
20 20 18 23 19 23 24 18 24 30 30 32 31 28 22 22 24 23 24 27 33 34 34 34 39 40 43 44 46 49 49 49 47 47 48 42 43 46 46 48 49 51 53
6 11 11 13 12 9 12 14 14 13 17 21 24 25 25 26 28 29 31 35 37 38 38 37 38 38 45 48 51 50 49 50 51 56 55 51 46 47 49 51 51 53 56
7 9 11 12 13 16 19 20 21 18 20 21 22 24 27 28 32 34 36 37 38 41 41 42 46 45 47 52 56 56 57 55 52 57 58 51 46 48 52 53 53 55 55
14 14 15 15 16 18 20 21 23 24 25 23 22 24 26 28 29 30 31 34 36 40 42 42 46 51 47 54 55 51 53 52 58 56 55 56 53 50 53 54 58 55 59
16 18 21 22 20 20 19 20 23 26 26 26 27 29 30 32 33 35 36 38 43 44 47 46 50 50 53 53 53 56 55 53 56 60 63 57 52 55 54 60 62 57 66
18 18 19 21 23 24 25 24 25 25 26 27 28 33 37 39 41 40 42 44 44 45 50 52 50 53 54 55 59 55 55 55 57 59 62 63 59 60 55 61 59 60 65
23 24 24 24 24 26 25 24 23 28 30 30 32 32 35 39 40 41 45 46 47 49 51 51 54 55 53 50 54 52 52 53 48 53 60 62 63 62 57 62 65 69 75
29 30 28 30 32 31 29 29 30 30 32 32 32 33 36 39 42 44 47 49 49 50 50 50 55 56 54 56 57 52 50 53 55 58 60 65 66 59 59 68 69 75 77
33 35 34 32 34 35 34 36 37 37 38 40 39 38 40 43 45 48 50 51 53 55 53 57 59 54 54 53 54 55 54 57 61 60 62 65 75 75 63 67 77 83 84
36 37 36 37 37 38 38 40 42 47 49 49 49 50 48 46 46 47 51 54 55 56 57 59 62 56 57 56 58 62 58 59 66 62 69 74 72 65 68 75 84 89 84
40 38 38 39 38 39 40 41 44 48 49 51 53 51 49 49 50 49 49 51 55 57 56 52 62 55 61 61 64 64 58 67 67 72 70 70 64 70 79 85 88 88 88
44 44 43 43 41 38 38 38 42 45 49 48 47 47 49 51 54 54 54 56 58 59 59 60 61 63 65 64 65 71 67 68 74 76 84 76 71 78 78 84 89 91 92
50 52 50 48 47 47 46 45 48 49 50 54 53 53 54 54 50 55 59 61 63 65 66 67 67 64 66 71 73 74 80 74 72 83 77 74 80 86 88 92 92 94 91

GFSMA_500_spd_069.txt.gz
Wind_Speed
28 30 27 26 29 35 39 38 38 35 24 26 25 21 23 21 20 21 19 14 13 14 14 15 16 17 14 13 13 11 12 14 12 13 13 14 16 16 18 18 18 20 21
32 27 24 25 28 34 37 38 37 35 27 29 28 21 24 24 20 20 18 17 18 16 18 16 17 18 17 14 14 12 13 14 14 15 15 20 17 15 16 18 21 21 19
26 24 23 25 26 27 34 38 37 35 29 29 31 26 24 26 23 22 16 15 17 17 19 19 19 20 17 18 17 18 20 20 17 17 18 14 14 15 18 21 22 20 20
21 23 23 24 31 31 27 36 39 36 31 31 35 33 26 26 26 24 20 18 18 19 19 22 22 22 21 24 22 21 21 22 19 16 13 14 15 17 22 23 24 22 22
35 33 30 27 31 32 31 32 37 38 40 34 38 36 31 27 28 24 24 23 19 21 22 23 25 25 25 27 27 24 21 24 19 17 15 14 15 19 23 24 25 24 24
35 38 34 33 36 38 31 34 40 43 45 43 42 39 35 28 29 22 22 22 21 22 23 25 24 28 30 29 29 25 24 23 20 18 16 17 17 23 24 23 25 26 27
34 37 37 37 33 37 29 32 34 38 42 49 54 43 37 33 27 24 25 23 21 22 25 25 26 29 31 31 24 26 23 23 21 20 20 24 23 27 27 28 27 26 27
20 28 34 31 32 31 31 30 31 36 40 39 54 46 39 37 31 24 22 21 22 24 26 24 25 28 31 30 27 29 27 28 27 24 26 26 27 28 30 27 26 27 28
19 20 26 27 29 32 36 35 35 36 34 42 51 45 37 32 27 22 22 24 25 26 27 25 27 26 27 24 26 31 31 32 31 29 30 28 30 30 34 33 30 29 30
16 24 21 27 29 30 35 38 37 36 30 21 35 32 24 23 25 24 25 26 28 21 24 25 25 27 27 25 27 31 32 35 36 34 33 36 33 36 36 35 34 36 35
18 22 23 23 28 21 22 22 18 19 17 19 20 20 21 23 25 26 27 26 26 19 18 21 20 21 24 28 28 30 35 38 37 40 40 42 40 41 42 37 32 37 39
2 7 10 22 17 20 17 12 14 15 16 20 23 22 23 24 26 24 26 22 19 21 19 18 17 20 24 28 32 35 37 38 38 40 41 46 51 49 43 37 35 39 42
13 13 13 16 17 19 13 14 13 14 20 23 23 24 25 26 23 26 28 22 19 21 23 20 23 27 30 33 35 36 40 42 40 42 44 45 49 45 48 46 41 42 44
14 21 22 19 19 19 19 20 16 20 21 24 25 25 25 29 27 25 27 27 26 26 26 23 28 31 33 35 35 36 39 40 39 43 51 53 50 50 51 54 56 50 47
8 9 21 16 18 20 19 23 19 15 22 26 30 31 32 30 29 27 28 31 32 33 34 29 34 35 35 37 38 40 43 46 48 49 53 54 55 52 51 55 60 52 51
5 5 8 9 9 11 14 15 16 17 16 14 16 19 22 27 31 33 34 36 38 40 40 34 36 37 37 37 37 40 45 52 51 55 52 47 47 48 54 58 57 55 59
10 8 9 12 12 13 15 15 17 19 19 21 23 26 27 29 31 33 35 35 35 36 37 33 37 37 39 38 39 44 49 49 47 51 53 52 56 55 57 57 58 62 59
9 12 15 16 18 19 19 18 18 17 20 22 25 26 26 29 31 32 33 35 36 37 39 42 39 38 39 40 45 49 48 50 52 52 49 49 53 58 61 55 63 65 62
13 12 13 14 16 21 22 23 23 24 24 23 26 30 30 31 30 34 37 38 38 39 40 43 44 46 47 46 47 46 52 53 52 50 52 50 52 53 50 50 61 69 68
19 18 19 18 19 21 23 24 27 28 29 29 32 33 33 34 35 35 35 38 41 44 46 49 49 48 51 50 48 50 50 52 54 48 50 45 48 51 57 54 55 58 70
24 27 28 26 25 25 25 28 30 31 32 33 35 35 36 36 36 36 38 39 43 47 48 50 52 51 53 53 54 54 52 59 61 52 51 51 54 56 59 58 58 62 64
27 28 30 32 32 31 29 31 34 35 36 37 37 38 40 42 43 44 43 44 47 51 51 52 53 53 54 54 54 54 60 57 52 54 53 51 51 64 68 61 64 65 68
36 34 34 36 36 35 32 34 37 39 39 41 42 44 47 48 48 49 50 52 51 51 54 54 56 56 57 55 56 56 58 58 56 60 62 68 61 63 69 71 70 74 75
44 42 40 42 42 39 39 39 37 39 40 41 45 48 49 48 48 49 49 48 48 47 50 54 57 57 59 59 59 61 60 62 67 66 64 63 67 66 73 74 72 74 77
47 47 47 47 45 43 43 42 42 42 44 47 48 50 51 51 51 50 51 54 56 55 54 53 53 56 59 63 65 66 66 68 65 67 70 69 71 76 74 74 77 80 77
48 49 51 50 50 51 50 52 50 49 51 53 56 58 60 60 60 58 58 59 63 65 62 63 63 62 62 71 68 67 65 68 69 67 67 73 75 76 75 77 80 77 76

GFSMA_500_spd_075.txt.gz
Wind_Speed
29 41 37 29 26 24 30 28 24 40 38 35 28 26 23 21 18 18 18 18 17 17 16 13 15 18 20 20 19 20 21 22 23 22 21 23 20 16 13 15 16 18 18
39 38 39 32 26 24 18 22 25 35 36 31 30 28 27 25 21 21 20 19 19 20 18 17 18 19 21 21 22 22 23 24 24 23 21 22 18 16 15 14 18 18 17
54 40 46 39 27 28 27 23 27 34 34 33 33 29 33 26 24 23 22 21 22 20 19 18 18 19 22 23 25 25 25 25 26 24 23 19 19 19 17 18 21 17 18
51 37 44 33 27 28 26 27 29 33 35 37 35 31 31 26 27 25 24 23 24 24 22 21 21 22 24 27 27 26 27 27 28 26 23 23 24 23 22 22 20 17 15
50 41 36 27 30 24 27 28 29 28 33 37 36 34 35 34 31 28 28 27 26 25 25 24 24 25 26 29 31 30 31 31 30 28 25 28 29 27 26 23 21 19 17
46 49 35 32 28 26 23 28 22 26 26 33 32 36 35 34 35 35 33 31 29 30 29 29 29 30 29 32 33 33 34 33 33 31 28 29 29 30 27 26 23 20 20
46 43 41 33 28 24 24 26 26 26 25 24 27 31 36 35 31 35 36 36 34 32 31 32 32 33 33 32 35 37 35 37 37 36 34 33 32 33 30 28 27 26 26
39 38 32 28 21 25 28 26 26 29 32 28 27 31 37 41 38 40 40 41 39 37 33 34 33 35 33 33 37 37 38 38 39 39 39 39 34 33 33 32 31 31 30
22 35 34 27 26 26 29 34 32 29 32 32 30 27 33 33 37 38 40 43 41 40 38 34 36 36 37 36 37 38 39 42 41 40 40 35 36 37 37 36 37 37 36
22 19 22 29 28 35 34 36 38 35 37 33 31 27 30 28 33 30 27 28 34 37 38 35 36 38 40 39 40 41 42 46 44 40 40 36 39 40 39 39 40 41 41
22 29 30 32 35 33 38 38 42 39 39 35 31 31 30 32 33 26 28 28 29 30 35 36 38 39 40 40 40 42 44 44 38 41 39 37 39 42 42 43 43 42 41
21 23 35 33 30 28 33 36 36 34 33 31 32 34 34 34 35 33 28 29 29 33 35 36 36 36 36 37 37 39 41 39 38 37 37 38 40 42 43 44 43 44 45
15 19 30 39 42 38 34 32 33 35 34 32 30 32 32 34 36 31 27 29 29 31 32 29 30 31 34 30 31 31 33 34 34 34 37 39 43 45 44 44 46 46 48
12 10 20 27 31 34 35 33 37 35 36 36 39 30 29 32 29 28 28 30 29 31 29 23 30 29 31 34 32 31 31 33 35 38 40 42 41 41 42 44 45 44 47
8 11 18 20 22 30 34 34 36 29 27 32 30 31 37 36 32 32 33 32 32 30 29 26 28 33 32 34 35 37 36 38 41 42 41 42 42 45 47 48 48 47 46
9 11 12 21 20 22 27 25 23 24 24 27 26 30 32 33 34 34 35 34 31 33 32 32 33 33 37 40 39 41 42 45 45 46 46 45 47 48 48 51 51 49 50
11 11 11 10 17 21 24 25 27 31 32 31 29 27 25 24 29 36 39 38 37 37 38 35 37 37 41 44 45 47 49 50 46 45 46 48 50 49 50 52 55 55 52
12 12 12 13 14 17 19 19 19 21 22 24 27 29 28 31 32 30 30 33 36 37 40 42 42 43 42 44 47 48 49 49 50 49 50 53 53 53 55 56 57 57 54
15 14 14 15 15 18 20 21 23 25 27 28 28 28 27 31 30 33 37 39 41 42 44 45 44 43 43 44 46 49 49 50 51 51 53 56 55 55 56 58 58 58 61
17 18 20 21 21 21 21 22 24 25 27 29 31 32 33 35 35 36 38 39 40 43 44 47 48 45 47 46 48 45 45 47 49 51 54 54 56 56 59 59 60 59 59
24 24 23 23 25 27 29 31 31 32 33 34 35 35 37 38 39 40 42 41 42 44 46 49 51 50 49 48 49 49 53 53 55 58 57 59 60 61 60 62 62 59 60
27 28 28 28 29 28 28 32 34 35 37 38 38 39 41 43 44 45 46 46 47 49 51 52 54 56 56 55 57 60 60 60 58 57 58 62 58 56 58 60 63 66 64
34 34 33 33 33 36 38 39 38 39 40 40 40 41 42 42 43 46 47 50 51 53 56 57 57 58 57 56 54 52 53 55 54 57 59 62 62 60 61 65 63 71 74
38 39 41 44 43 43 45 45 45 47 47 46 46 45 48 48 48 47 49 51 53 56 58 59 61 60 60 58 58 58 60 61 61 62 63 65 67 70 70 72 66 72 69
47 50 49 49 49 49 50 51 50 53 56 55 53 57 57 54 55 55 55 55 57 58 59 62 66 68 69 68 67 67 65 66 65 64 70 77 79 76 82 81 79 77 81
52 55 57 57 57 58 57 58 59 58 58 59 64 67 60 59 60 58 61 62 66 66 69 67 69 70 74 71 73 79 70 73 78 77 85 85 88 86 87 88 92 89 88

GFSMA_500_spd_078.txt.gz
Wind_Speed
28 31 35 38 34 35 24 26 30 28 27 29 32 34 34 29 22 22 20 19 17 17 17 19 20 19 20 20 21 21 23 22 23 22 23 24 25 25 25 21 19 18 20
31 34 38 36 35 34 23 28 33 33 28 32 33 34 30 23 21 21 21 20 19 17 19 22 23 21 19 21 22 24 26 24 24 23 25 26 25 26 25 23 21 21 22
26 36 39 37 42 32 29 22 35 32 32 32 38 37 28 26 26 26 23 22 21 20 22 25 27 26 20 23 25 25 25 25 27 27 28 29 27 27 25 25 23 24 25
27 33 38 45 44 39 27 27 26 31 23 23 31 32 29 28 29 32 25 25 25 24 24 25 26 26 24 24 26 26 27 27 29 30 30 31 31 29 24 23 24 26 27
27 32 46 47 49 42 27 26 24 25 24 26 30 37 35 31 29 37 31 31 29 28 27 27 26 28 27 27 28 29 29 30 32 32 31 33 30 29 28 28 28 29 29
26 41 49 50 48 40 27 26 25 25 25 29 33 39 38 34 28 31 29 32 33 33 31 29 28 31 31 31 32 32 32 33 34 34 34 36 32 31 29 29 28 30 29
28 30 53 49 49 35 30 24 25 24 26 28 30 34 37 30 31 31 34 35 36 36 36 33 32 33 35 36 36 36 37 37 36 36 37 36 37 34 32 32 32 33 32
27 38 49 54 42 32 28 22 25 26 24 25 28 26 28 27 28 30 35 38 37 39 40 39 37 36 37 41 39 37 39 40 39 40 40 39 40 38 39 40 37 34 35
27 38 54 49 36 33 26 25 24 24 26 27 27 27 26 26 31 32 36 34 36 41 41 40 41 41 41 41 40 40 41 43 42 42 42 42 41 40 42 43 39 38 38
20 31 39 38 39 23 18 20 25 27 29 28 27 28 33 31 31 33 33 36 34 31 27 35 40 40 42 46 42 42 43 44 44 45 44 45 43 41 41 44 40 43 42
17 18 21 35 30 25 24 23 26 28 33 31 29 31 34 32 32 32 31 34 35 32 35 35 38 39 35 41 43 42 43 44 44 47 48 48 48 42 43 44 40 43 44
13 18 20 23 34 33 28 27 28 31 34 36 34 37 37 36 33 35 36 37 34 35 39 36 37 35 37 40 41 40 41 42 44 46 47 43 41 41 40 39 39 41 43
14 16 18 25 29 22 29 28 28 32 36 37 39 37 35 34 34 36 34 38 40 31 39 37 33 33 33 34 34 35 36 37 38 38 38 37 39 38 39 38 39 42 45
7 12 15 17 27 30 28 32 33 34 34 32 35 36 37 36 32 33 32 32 38 41 39 33 30 30 31 31 32 34 39 38 32 32 32 33 35 36 40 42 43 45 47
6 7 11 13 26 35 28 31 34 37 34 33 35 38 40 37 34 33 32 33 42 41 37 34 33 29 26 27 29 33 34 35 39 38 38 38 39 40 43 44 45 48 49
9 10 11 12 16 19 23 22 29 35 35 33 32 25 26 29 33 35 36 37 36 37 38 34 33 32 32 32 33 36 40 41 42 42 43 45 46 47 49 51 50 49 49
11 12 12 14 18 19 21 20 20 23 22 23 25 28 29 31 34 36 34 40 41 43 43 39 39 39 41 40 41 39 42 46 46 47 47 48 50 51 52 52 50 51 52
15 17 17 16 16 17 19 21 22 21 20 21 26 29 28 30 31 30 33 35 35 37 39 42 42 43 45 43 42 43 45 47 47 47 48 51 52 52 54 55 53 53 54
13 13 14 15 15 17 18 22 23 24 26 26 28 28 28 32 33 36 38 39 37 38 40 42 41 42 44 46 44 44 43 45 46 47 51 53 54 56 56 55 55 56 57
19 18 17 17 18 19 21 23 25 27 29 30 32 33 34 36 36 38 39 39 39 41 42 45 46 44 44 42 45 44 46 49 51 51 49 49 52 53 55 57 60 62 63
24 23 23 22 23 23 24 27 28 29 30 32 34 34 36 37 37 38 41 41 43 44 46 47 49 49 48 46 46 48 51 49 50 51 52 54 57 61 62 64 65 65 63
29 29 28 28 28 29 31 32 32 32 32 34 34 36 37 39 41 43 44 45 48 50 51 51 53 55 54 54 53 54 56 57 56 54 59 58 57 55 54 57 56 58 63
33 34 34 34 35 37 36 36 37 38 40 40 41 42 43 45 46 46 47 48 49 50 52 55 56 55 57 58 59 58 60 61 61 60 59 59 58 58 59 59 61 62 65
38 35 36 37 39 38 39 40 45 46 48 47 48 50 50 51 52 54 52 52 54 57 59 59 62 61 60 57 59 61 62 64 65 67 67 67 66 65 65 64 62 67 68
41 44 45 46 47 49 52 50 52 54 55 55 55 56 58 57 58 59 61 61 64 67 67 64 66 66 64 66 64 66 70 71 71 72 74 72 74 75 72 75 80 74 79
46 49 49 53 55 58 59 58 59 61 60 62 64 63 64 66 66 67 56 58 63 68 72 79 73 70 77 73 81 78 77 76 80 80 77 80 79 81 81 86 84 79 81

GFSMA_500_spd_081.txt.gz
Wind_Speed
25 26 24 29 38 35 32 21 24 30 32 31 33 32 29 26 26 29 21 21 21 21 19 18 19 21 22 23 24 22 23 24 24 24 23 24 25 25 25 26 26 26 25
26 30 29 33 35 31 37 26 28 31 32 34 35 35 34 30 28 32 26 23 24 22 21 22 21 22 23 24 24 24 24 26 26 26 25 24 25 25 27 27 26 28 25
25 25 31 33 37 38 33 32 32 33 33 35 36 35 37 35 32 31 27 25 26 25 22 21 22 23 24 26 25 26 26 27 27 29 28 25 26 26 27 28 26 27 26
22 24 29 35 39 43 38 38 31 34 35 37 40 37 35 32 26 29 28 29 30 26 26 25 26 24 26 30 30 28 27 28 30 31 29 27 26 26 27 27 27 27 27
24 26 30 33 39 38 41 41 32 33 36 34 35 35 35 35 34 28 29 31 30 29 29 29 28 27 28 29 31 30 29 30 32 32 31 29 28 27 29 29 29 28 29
26 28 31 34 41 43 45 42 34 29 35 37 31 31 33 32 36 27 26 30 33 32 30 31 31 31 31 30 32 32 34 34 34 33 34 32 31 31 30 31 30 32 31
24 25 33 32 35 44 47 38 30 30 29 33 32 26 28 31 32 30 27 28 36 33 31 37 37 35 36 35 35 36 37 37 38 37 37 38 34 33 33 35 33 33 33
24 28 28 38 33 48 47 36 22 29 31 31 31 31 31 29 30 34 32 31 33 34 35 37 41 42 41 40 40 40 41 41 41 42 42 40 39 37 37 38 39 39 37
21 32 27 29 37 45 45 36 27 32 32 30 29 27 27 26 32 31 31 33 34 32 32 33 38 41 42 42 42 44 44 44 44 45 42 43 43 41 41 41 42 43 40
13 28 33 37 43 51 48 39 32 30 34 33 30 24 28 27 30 28 29 30 32 34 37 35 29 33 39 43 45 44 41 45 49 46 45 43 43 43 44 44 45 45 47
6 13 20 37 37 53 45 32 41 35 32 32 31 29 28 28 29 31 32 34 35 33 33 32 35 37 40 44 46 45 44 44 45 49 44 44 43 45 45 46 47 47 46
1 4 7 15 35 42 34 31 24 21 28 29 28 29 29 28 28 32 33 34 33 36 37 36 33 40 45 46 47 43 44 44 40 42 41 40 41 42 42 42 44 44 42
5 6 8 11 10 29 29 31 26 26 22 24 28 30 34 33 33 34 36 35 32 34 34 34 36 39 39 42 41 42 41 39 36 38 38 37 35 37 37 37 36 34 33
3 8 10 13 17 25 20 30 35 25 24 28 29 28 30 35 39 39 36 37 33 36 36 32 36 43 43 41 40 38 34 33 35 36 35 35 32 32 33 34 34 34 37
2 2 7 11 17 19 21 25 19 26 28 32 32 30 31 33 35 37 37 39 40 36 33 31 34 39 41 40 35 31 31 31 34 35 35 33 36 37 38 39 39 39 41
5 4 6 7 12 21 25 26 20 21 24 28 29 29 32 32 32 28 27 29 30 33 34 33 33 35 36 37 36 36 35 37 37 37 39 40 41 41 42 42 44 46 48
9 9 8 7 9 11 15 18 19 22 19 19 22 19 20 20 23 27 28 29 33 37 40 36 33 37 39 40 41 42 41 43 43 43 42 44 45 45 47 48 48 50 50
5 6 9 12 13 12 11 15 19 21 20 19 21 24 24 26 29 30 34 34 34 34 36 35 35 36 40 43 47 48 46 47 48 46 44 45 48 49 49 49 50 51 52
9 8 7 7 8 10 13 16 17 17 19 19 21 21 23 25 25 28 29 31 33 36 39 41 37 40 40 40 41 42 44 47 49 48 49 48 48 51 51 52 53 54 55
16 14 13 13 13 13 15 17 18 20 22 23 25 26 27 30 31 33 35 36 37 39 40 44 44 43 45 44 47 45 45 48 49 49 50 50 52 53 54 53 52 55 55
22 21 21 20 19 20 21 21 22 23 24 25 27 29 32 34 35 37 40 38 41 42 43 46 49 50 50 49 49 50 53 50 51 52 53 54 54 56 55 57 58 59 61
26 27 26 26 27 27 25 26 27 28 30 31 31 33 35 36 37 39 41 43 44 46 47 49 50 51 50 50 51 51 53 54 55 52 56 59 59 59 60 61 63 64 65
25 28 29 30 32 31 31 31 33 35 37 37 38 39 41 43 43 43 44 46 47 50 53 55 55 55 56 56 55 56 56 57 60 61 61 61 63 64 65 63 63 64 66
25 26 29 30 33 33 34 35 37 41 43 44 46 47 47 49 49 51 53 55 58 60 59 60 62 64 65 66 66 69 68 66 64 64 64 66 69 70 69 68 69 69 68
30 30 31 33 36 39 41 44 46 46 49 52 56 57 58 57 58 59 60 61 61 62 64 65 64 63 70 73 74 71 75 73 73 70 75 74 76 81 77 79 79 80 77
32 32 34 37 39 42 46 49 52 56 58 62 64 65 66 67 67 65 64 65 64 67 69 63 60 70 67 75 70 75 71 72 76 79 85 86 86 91 88 88 86 90 91

GFSMA_500_spd_084.txt.gz
Wind_Speed
27 26 24 22 20 27 25 26 31 29 34 39 37 34 32 28 32 33 31 26 25 23 21 22 20 19 19 19 22 24 26 26 24 23 24 24 24 23 24 24 25 25 26
22 23 24 22 22 28 30 30 32 30 33 38 40 39 36 32 32 30 25 24 29 24 23 23 21 21 23 23 24 26 27 28 27 24 23 25 24 24 24 24 26 25 26
20 20 21 24 26 36 35 30 36 30 29 34 38 39 38 38 34 29 26 27 31 26 25 23 24 26 26 26 25 26 26 26 27 27 25 25 26 25 25 26 26 25 27
18 21 23 24 28 33 42 34 38 31 29 32 36 36 37 39 37 34 31 30 34 31 30 28 28 28 27 27 26 28 28 28 29 30 29 28 27 27 27 26 26 27 27
19 19 23 28 26 30 48 42 41 35 31 35 35 39 39 37 35 35 33 33 37 33 33 32 30 29 28 27 26 27 30 32 33 32 31 29 29 30 30 29 27 28 29
21 21 24 25 28 31 39 45 43 42 37 37 38 38 37 35 34 35 31 34 34 33 33 33 33 32 30 30 30 30 33 34 35 34 33 35 34 34 32 32 31 30 31
28 26 25 24 26 31 33 48 48 48 42 36 38 37 33 33 36 36 36 38 34 30 33 36 35 35 33 33 35 35 36 37 38 38 38 39 40 39 35 35 34 34 34
29 28 26 23 30 27 33 39 46 43 43 37 30 36 34 31 33 36 37 40 31 31 34 31 40 32 31 36 39 42 40 41 41 44 46 46 44 43 40 39 39 38 37
24 25 21 25 33 40 29 35 40 46 40 36 30 28 31 29 32 32 34 36 34 31 33 34 34 33 35 38 38 40 42 42 41 43 49 50 49 48 45 44 43 44 41
18 19 18 28 38 41 39 38 44 45 33 26 28 31 32 33 34 37 37 36 32 33 35 36 36 35 37 38 36 41 44 45 47 48 47 42 42 48 51 46 46 45 45
11 11 28 32 30 41 43 42 51 44 30 24 27 31 34 32 36 36 36 36 32 30 32 33 34 36 38 38 39 40 43 45 47 49 49 49 47 44 47 49 40 41 41
3 9 11 21 33 35 34 41 49 44 32 27 32 32 30 29 30 32 31 30 28 32 35 38 35 35 37 37 40 42 44 46 47 50 49 46 43 35 33 36 39 40 39
6 6 7 6 22 35 36 41 43 41 33 32 38 31 30 31 31 33 33 31 31 30 31 32 31 34 37 38 41 43 45 43 43 44 43 43 40 34 33 36 33 32 36
3 6 6 9 6 26 35 36 33 28 28 23 22 24 25 28 28 32 32 34 34 36 38 37 36 36 33 32 37 40 39 40 40 41 39 35 34 33 33 35 32 33 33
1 1 3 6 11 15 18 25 30 28 24 27 26 28 31 32 30 28 30 34 36 35 34 35 36 34 33 33 34 35 34 34 36 35 35 36 34 33 34 34 36 37 37
1 2 3 3 7 12 17 20 16 21 20 17 23 27 29 31 30 29 30 30 32 31 31 31 33 33 33 35 33 34 33 35 37 39 39 38 38 37 38 39 41 41 42
3 3 4 5 7 8 12 14 20 21 20 21 21 24 27 30 24 24 24 23 26 27 27 28 33 34 35 33 32 33 37 40 43 43 45 44 42 43 44 45 46 46 47
5 4 5 7 8 10 11 12 14 17 17 16 17 17 19 24 25 24 26 29 30 30 33 35 33 30 32 34 35 35 36 37 37 40 41 45 48 50 49 50 52 53 54
12 10 9 9 10 12 13 15 12 10 11 13 14 17 19 21 19 22 25 27 28 30 32 35 33 34 35 37 38 39 36 39 42 42 45 46 48 51 53 55 55 55 56
18 17 16 14 13 12 10 10 11 14 16 17 19 22 23 25 25 27 29 29 30 32 34 38 38 36 39 38 43 42 43 45 46 48 50 50 52 53 55 57 59 59 59
22 22 22 20 19 16 14 15 16 17 19 20 23 25 26 27 29 30 31 32 34 36 38 40 42 42 41 43 45 47 48 47 48 51 52 54 55 57 62 62 64 65 65
25 25 24 23 22 21 21 21 23 23 24 26 26 28 29 30 31 34 37 38 40 41 42 43 45 46 47 47 47 48 50 51 51 54 53 53 54 58 60 62 63 65 67
24 21 22 23 24 24 27 28 29 30 31 31 32 33 35 36 36 40 42 44 46 48 50 52 53 55 55 57 58 58 59 58 55 64 64 63 67 63 62 66 64 66 67
30 27 28 27 26 26 27 29 31 32 35 37 39 40 41 43 46 47 51 53 55 55 58 59 60 62 63 65 65 66 66 63 64 68 69 70 73 77 79 79 78 77 77
27 26 26 28 30 32 31 32 35 39 41 41 42 44 46 48 50 53 57 60 63 65 63 64 64 65 66 64 64 67 72 71 69 66 67 72 75 80 78 77 82 80 79
31 32 32 33 34 35 37 40 44 44 44 47 50 56 59 60 57 56 56 57 59 60 61 61 62 63 67 69 71 72 75 76 78 80 83 84 85 85 85 88 89 86 84